GW2849 Weather Reports


Display with metric or nautical units.
time (UTC)temp
F
wind
direction
speed
MPH
gust
MPH
rain 1hr
in
rain 24hr
in
rain mn
in
humidity
%
barometer
mb
20260902001059 88 181 0.0 0.0 0.00 0.00 0.00 61 1017.1
20260902000958 88 178 0.0 0.0 0.00 0.00 0.00 61 1017.1
20260902000858 88 178 0.0 0.0 0.00 0.00 0.00 60 1017.1
20260902000800 88 178 0.0 1.0 0.00 0.00 0.00 60 1017.1
20260902000658 88 228 0.0 1.0 0.00 0.00 0.00 60 1017.0
20260902000459 88 229 0.0 1.0 0.00 0.00 0.00 60 1017.1
20260902000359 88 227 0.0 1.0 0.00 0.00 0.00 60 1017.1
20260902000259 88 227 0.0 2.0 0.00 0.00 0.00 60 1017.1
20260902000000 88 231 0.0 3.0 0.00 0.00 0.00 60 1017.1
20260901235858 88 178 0.0 3.0 0.00 0.00 0.00 60 1017.2
20260901235759 88 179 0.0 3.0 0.00 0.00 0.00 60 1017.1
20260901235658 89 219 0.0 4.0 0.00 0.00 0.00 60 1017.1
20260901235600 89 197 0.0 4.0 0.00 0.00 0.00 60 1017.2
20260901235458 89 190 0.0 4.0 0.00 0.00 0.00 60 1017.2
20260901235359 89 161 0.0 4.0 0.00 0.00 0.00 60 1017.1
20260901235258 89 153 0.0 4.0 0.00 0.00 0.00 60 1017.1
20260901235158 89 151 2.0 4.0 0.00 0.00 0.00 60 1017.1
20260901235058 89 161 2.0 4.0 0.00 0.00 0.00 60 1017.2
20260901234958 89 179 0.0 4.0 0.00 0.00 0.00 60 1017.1
20260901234800 89 169 0.0 5.0 0.00 0.00 0.00 60 1017.2
20260901234658 89 229 0.0 5.0 0.00 0.00 0.00 60 1017.2
20260901234559 89 218 0.0 5.0 0.00 0.00 0.00 60 1017.2
20260901234358 89 187 2.0 5.0 0.00 0.00 0.00 60 1017.2
20260901234201 89 195 0.0 5.0 0.00 0.00 0.00 60 1017.3
20260901234057 89 185 0.0 5.0 0.00 0.00 0.00 60 1017.3
20260901234000 89 169 1.0 5.0 0.00 0.00 0.00 59 1017.3
20260901233858 89 209 0.0 2.0 0.00 0.00 0.00 60 1017.3
20260901233758 89 209 0.0 3.0 0.00 0.00 0.00 59 1017.2
20260901233601 89 176 1.0 5.0 0.00 0.00 0.00 59 1017.2
20260901233459 90 185 0.0 5.0 0.00 0.00 0.00 59 1017.3
20260901233358 90 211 0.0 5.0 0.00 0.00 0.00 60 1017.2
20260901233258 90 171 0.0 5.0 0.00 0.00 0.00 60 1017.3
20260901233159 90 175 0.0 5.0 0.00 0.00 0.00 59 1017.3
20260901233059 90 169 1.0 5.0 0.00 0.00 0.00 59 1017.3
20260901232958 90 175 1.0 5.0 0.00 0.00 0.00 59 1017.2
20260901232902 90 211 5.0 5.0 0.00 0.00 0.00 59 1017.3
20260901232759 90 173 0.0 5.0 0.00 0.00 0.00 60 1017.3
20260901232658 90 178 1.0 5.0 0.00 0.00 0.00 60 1017.2
20260901232558 90 215 1.0 5.0 0.00 0.00 0.00 60 1017.3
20260901232458 90 221 0.0 5.0 0.00 0.00 0.00 60 1017.2
20260901232402 90 198 1.0 5.0 0.00 0.00 0.00 59 1017.3
20260901232158 90 294 1.0 5.0 0.00 0.00 0.00 59 1017.3
20260901232059 90 261 0.0 5.0 0.00 0.00 0.00 59 1017.3
20260901231958 90 173 1.0 5.0 0.00 0.00 0.00 59 1017.1
20260901231858 90 211 0.0 4.0 0.00 0.00 0.00 59 1017.3
20260901231759 90 253 0.0 4.0 0.00 0.00 0.00 59 1017.3
20260901231659 90 188 0.0 4.0 0.00 0.00 0.00 59 1017.2
20260901231558 90 201 0.0 5.0 0.00 0.00 0.00 59 1017.3
20260901231458 90 183 0.0 5.0 0.00 0.00 0.00 59 1017.3
20260901231358 90 195 0.0 5.0 0.00 0.00 0.00 59 1017.3
20260901231300 90 195 0.0 6.0 0.00 0.00 0.00 59 1017.3
20260901231158 90 181 0.0 6.0 0.00 0.00 0.00 59 1017.3
20260901231059 90 229 0.0 6.0 0.00 0.00 0.00 59 1017.3
20260901231002 90 186 0.0 6.0 0.00 0.00 0.00 58 1017.3
20260901230900 90 187 1.0 6.0 0.00 0.00 0.00 59 1017.2
20260901230759 91 9 0.0 6.0 0.00 0.00 0.00 58 1017.2
20260901230700 91 198 1.0 6.0 0.00 0.00 0.00 58 1017.2
20260901230600 91 191 2.0 6.0 0.00 0.00 0.00 58 1017.2
20260901230459 91 204 2.0 6.0 0.00 0.00 0.00 58 1017.2
20260901230358 91 177 1.0 6.0 0.00 0.00 0.00 58 1017.2
20260901230259 91 206 1.0 6.0 0.00 0.00 0.00 58 1017.3
20260901230159 91 201 0.0 6.0 0.00 0.00 0.00 58 1017.2
20260901225900 91 219 2.0 4.0 0.00 0.00 0.00 59 1017.3
20260901225758 91 219 0.0 4.0 0.00 0.00 0.00 59 1017.2
20260901225658 91 281 0.0 4.0 0.00 0.00 0.00 58 1017.2
20260901225558 91 232 0.0 4.0 0.00 0.00 0.00 58 1017.1
20260901225501 91 241 0.0 4.0 0.00 0.00 0.00 58 1017.1
20260901225159 91 190 1.0 4.0 0.00 0.00 0.00 58 1017.1
20260901225059 91 331 1.0 4.0 0.00 0.00 0.00 58 1017.1
20260901224858 91 249 0.0 4.0 0.00 0.00 0.00 57 1017.2
20260901224758 91 265 2.0 7.0 0.00 0.00 0.00 57 1017.1
20260901224659 91 141 0.0 7.0 0.00 0.00 0.00 57 1017.1
20260901224559 91 169 0.0 7.0 0.00 0.00 0.00 57 1017.2
20260901224458 91 169 0.0 7.0 0.00 0.00 0.00 56 1017.2
20260901224259 92 188 4.0 7.0 0.00 0.00 0.00 55 1017.2
20260901224059 92 173 0.0 7.0 0.00 0.00 0.00 55 1017.1
20260901223958 92 169 7.0 7.0 0.00 0.00 0.00 55 1017.1
20260901223858 92 188 1.0 4.0 0.00 0.00 0.00 55 1017.1
20260901223759 92 155 1.0 7.0 0.00 0.00 0.00 55 1017.2
20260901223558 92 251 0.0 7.0 0.00 0.00 0.00 55 1017.2
20260901223458 92 193 1.0 7.0 0.00 0.00 0.00 56 1017.1
20260901223357 92 298 0.0 7.0 0.00 0.00 0.00 55 1017.1
20260901223301 92 304 0.0 7.0 0.00 0.00 0.00 55 1017.0
20260901223158 92 138 0.0 8.0 0.00 0.00 0.00 55 1017.1
20260901223059 92 246 0.0 8.0 0.00 0.00 0.00 55 1017.0
20260901222959 92 273 0.0 8.0 0.00 0.00 0.00 54 1017.1
20260901222858 92 264 0.0 8.0 0.00 0.00 0.00 55 1017.1
20260901222759 92 197 0.0 8.0 0.00 0.00 0.00 54 1017.0
20260901222658 92 182 0.0 8.0 0.00 0.00 0.00 54 1017.0
20260901222358 92 287 0.0 8.0 0.00 0.00 0.00 54 1017.1
20260901222300 92 198 3.0 8.0 0.00 0.00 0.00 54 1017.0
20260901222159 92 277 0.0 2.0 0.00 0.00 0.00 54 1017.0
20260901222058 92 157 0.0 2.0 0.00 0.00 0.00 53 1017.0
20260901221958 93 173 0.0 5.0 0.00 0.00 0.00 53 1016.9
20260901221859 93 174 0.0 6.0 0.00 0.00 0.00 54 1017.0
20260901221758 93 360 0.0 6.0 0.00 0.00 0.00 53 1017.0
20260901221659 93 135 0.0 6.0 0.00 0.00 0.00 54 1017.0
20260901221559 93 295 0.0 6.0 0.00 0.00 0.00 54 1017.0
20260901221500 93 355 0.0 6.0 0.00 0.00 0.00 54 1017.0
20260901221400 93 312 0.0 6.0 0.00 0.00 0.00 54 1017.1
20260901221200 93 193 0.0 6.0 0.00 0.00 0.00 53 1017.0
20260901221058 93 169 0.0 6.0 0.00 0.00 0.00 52 1017.1
20260901220959 93 167 4.0 6.0 0.00 0.00 0.00 52 1017.0
20260901220900 93 178 2.0 5.0 0.00 0.00 0.00 51 1017.1
20260901220658 93 189 2.0 5.0 0.00 0.00 0.00 51 1017.0
20260901220558 93 130 1.0 5.0 0.00 0.00 0.00 51 1017.1
20260901220458 93 285 2.0 5.0 0.00 0.00 0.00 51 1017.0
20260901220358 93 205 1.0 5.0 0.00 0.00 0.00 51 1017.1
20260901220259 94 311 3.0 5.0 0.00 0.00 0.00 51 1017.1
20260901220100 94 239 4.0 7.0 0.00 0.00 0.00 51 1017.1
20260901220001 94 330 0.0 7.0 0.00 0.00 0.00 53 1017.1
20260901215900 94 173 0.0 7.0 0.00 0.00 0.00 52 1017.0
20260901215758 94 105 0.0 7.0 0.00 0.00 0.00 53 1017.0
20260901215659 94 212 0.0 7.0 0.00 0.00 0.00 53 1016.9
20260901215558 94 157 0.0 7.0 0.00 0.00 0.00 52 1017.1
20260901215458 94 178 2.0 7.0 0.00 0.00 0.00 52 1017.1
20260901215358 94 223 1.0 7.0 0.00 0.00 0.00 52 1017.0
20260901215259 94 78 1.0 5.0 0.00 0.00 0.00 52 1017.0
20260901215159 94 274 1.0 4.0 0.00 0.00 0.00 51 1017.0
20260901215059 94 111 0.0 4.0 0.00 0.00 0.00 52 1017.0
20260901214958 94 193 1.0 4.0 0.00 0.00 0.00 53 1017.1
20260901214858 94 194 1.0 5.0 0.00 0.00 0.00 52 1017.0
20260901214759 94 149 0.0 5.0 0.00 0.00 0.00 52 1017.1
20260901214658 94 26 0.0 5.0 0.00 0.00 0.00 52 1017.1
20260901214558 94 199 2.0 5.0 0.00 0.00 0.00 52 1017.0
20260901214458 94 217 2.0 5.0 0.00 0.00 0.00 52 1017.1
20260901214400 94 248 2.0 5.0 0.00 0.00 0.00 53 1017.0
20260901214200 94 92 1.0 5.0 0.00 0.00 0.00 52 1017.0
20260901213958 94 192 1.0 5.0 0.00 0.00 0.00 51 1017.0
20260901213858 94 192 2.0 4.0 0.00 0.00 0.00 52 1017.0
20260901213759 94 225 0.0 4.0 0.00 0.00 0.00 52 1017.0
20260901213658 94 329 0.0 6.0 0.00 0.00 0.00 52 1017.0
20260901213559 94 311 0.0 6.0 0.00 0.00 0.00 51 1017.0
20260901213458 94 325 0.0 6.0 0.00 0.00 0.00 51 1017.0
20260901213359 94 182 0.0 6.0 0.00 0.00 0.00 50 1017.0
20260901213258 95 176 1.0 6.0 0.00 0.00 0.00 51 1017.0
20260901213158 95 162 0.0 6.0 0.00 0.00 0.00 52 1017.0
20260901213059 95 92 0.0 8.0 0.00 0.00 0.00 51 1017.0
20260901212758 95 202 3.0 8.0 0.00 0.00 0.00 51 1017.0
20260901212659 95 120 0.0 8.0 0.00 0.00 0.00 52 1017.1
20260901212558 95 360 0.0 8.0 0.00 0.00 0.00 53 1017.0
20260901212459 95 316 3.0 8.0 0.00 0.00 0.00 51 1017.0
20260901212159 95 235 3.0 8.0 0.00 0.00 0.00 51 1017.0
20260901211859 95 150 0.0 6.0 0.00 0.00 0.00 52 1017.0
20260901211700 95 179 0.0 6.0 0.00 0.00 0.00 51 1017.1
20260901211558 95 155 0.0 6.0 0.00 0.00 0.00 51 1017.1
20260901211458 95 80 0.0 6.0 0.00 0.00 0.00 50 1017.0
20260901211300 95 272 1.0 6.0 0.00 0.00 0.00 51 1017.1
20260901211158 95 312 0.0 4.0 0.00 0.00 0.00 52 1017.1
20260901211059 95 185 0.0 4.0 0.00 0.00 0.00 50 1017.1
20260901210758 96 124 0.0 4.0 0.00 0.00 0.00 49 1017.1
20260901210658 96 163 0.0 4.0 0.00 0.00 0.00 50 1017.1
20260901210559 96 108 0.0 4.0 0.00 0.00 0.00 50 1017.1
20260901210458 96 238 2.0 3.0 0.00 0.00 0.00 51 1017.1
20260901210358 96 248 0.0 3.0 0.00 0.00 0.00 52 1017.1
20260901210258 95 336 0.0 3.0 0.00 0.00 0.00 51 1017.1
20260901210158 95 336 0.0 3.0 0.00 0.00 0.00 51 1017.2
20260901210058 95 292 0.0 3.0 0.00 0.00 0.00 51 1017.1
20260901210003 95 327 0.0 3.0 0.00 0.00 0.00 51 1017.1
20260901205900 95 181 0.0 3.0 0.00 0.00 0.00 51 1017.3
20260901205758 95 160 0.0 3.0 0.00 0.00 0.00 51 1017.1
20260901205658 95 355 1.0 3.0 0.00 0.00 0.00 51 1017.2
20260901205558 95 209 0.0 4.0 0.00 0.00 0.00 51 1017.3
20260901205459 95 222 1.0 4.0 0.00 0.00 0.00 50 1017.2
20260901205358 95 279 1.0 4.0 0.00 0.00 0.00 51 1017.3
20260901205258 95 168 0.0 4.0 0.00 0.00 0.00 52 1017.2
20260901205158 95 163 0.0 5.0 0.00 0.00 0.00 52 1017.2
20260901205059 95 124 2.0 5.0 0.00 0.00 0.00 51 1017.2
20260901205000 95 5 0.0 6.0 0.00 0.00 0.00 51 1017.3
20260901204858 95 309 0.0 6.0 0.00 0.00 0.00 50 1017.3
20260901204759 95 198 2.0 6.0 0.00 0.00 0.00 50 1017.3
20260901204658 95 194 3.0 6.0 0.00 0.00 0.00 51 1017.3
20260901204458 95 308 3.0 6.0 0.00 0.00 0.00 51 1017.4
20260901204359 95 293 1.0 6.0 0.00 0.00 0.00 50 1017.4
20260901204258 95 171 4.0 6.0 0.00 0.00 0.00 50 1017.4
20260901204158 95 178 3.0 7.0 0.00 0.00 0.00 50 1017.4
20260901203958 95 321 1.0 7.0 0.00 0.00 0.00 52 1017.4
20260901203801 95 173 1.0 7.0 0.00 0.00 0.00 51 1017.4
20260901203458 95 183 4.0 7.0 0.00 0.00 0.00 51 1017.4
20260901203400 95 245 0.0 7.0 0.00 0.00 0.00 49 1017.4
20260901203258 95 200 6.0 7.0 0.00 0.00 0.00 49 1017.5
20260901203158 96 175 2.0 4.0 0.00 0.00 0.00 50 1017.4
20260901203058 96 315 1.0 4.0 0.00 0.00 0.00 49 1017.5
20260901202958 96 200 4.0 4.0 0.00 0.00 0.00 50 1017.5
20260901202857 96 141 0.0 4.0 0.00 0.00 0.00 50 1017.4
20260901202759 96 198 0.0 4.0 0.00 0.00 0.00 51 1017.4
20260901202558 96 167 0.0 5.0 0.00 0.00 0.00 49 1017.4
20260901202459 96 128 2.0 5.0 0.00 0.00 0.00 49 1017.5
20260901202358 96 186 1.0 7.0 0.00 0.00 0.00 48 1017.4
20260901202059 96 321 0.0 7.0 0.00 0.00 0.00 49 1017.4
20260901202000 96 309 1.0 7.0 0.00 0.00 0.00 48 1017.5
20260901201858 96 167 4.0 7.0 0.00 0.00 0.00 48 1017.4
20260901201758 96 29 2.0 7.0 0.00 0.00 0.00 49 1017.4
20260901201659 96 242 1.0 7.0 0.00 0.00 0.00 47 1017.3
20260901201559 95 214 0.0 7.0 0.00 0.00 0.00 48 1017.4
20260901201500 96 167 4.0 5.0 0.00 0.00 0.00 48 1017.3
20260901201400 96 202 1.0 5.0 0.00 0.00 0.00 48 1017.4
20260901201258 95 296 2.0 5.0 0.00 0.00 0.00 48 1017.3
20260901201159 95 193 1.0 5.0 0.00 0.00 0.00 48 1017.3
20260901200858 95 46 0.0 5.0 0.00 0.00 0.00 49 1017.3
20260901200758 95 219 2.0 5.0 0.00 0.00 0.00 46 1017.3
20260901200700 96 251 3.0 6.0 0.00 0.00 0.00 46 1017.4
20260901200558 96 173 3.0 4.0 0.00 0.00 0.00 47 1017.3
20260901200459 96 199 4.0 4.0 0.00 0.00 0.00 47 1017.3
20260901200358 96 287 1.0 4.0 0.00 0.00 0.00 47 1017.2
20260901200258 96 84 0.0 4.0 0.00 0.00 0.00 48 1017.4
20260901200201 96 138 2.0 4.0 0.00 0.00 0.00 48 1017.4
20260901200100 96 269 1.0 4.0 0.00 0.00 0.00 49 1017.3
20260901200003 96 214 4.0 4.0 0.00 0.00 0.00 50 1017.3
20260901195859 96 241 1.0 3.0 0.00 0.00 0.00 51 1017.3
20260901195758 95 312 1.0 3.0 0.00 0.00 0.00 51 1017.3
20260901195658 95 311 0.0 3.0 0.00 0.00 0.00 51 1017.3
20260901195600 95 341 0.0 3.0 0.00 0.00 0.00 49 1017.3
20260901195500 95 317 2.0 3.0 0.00 0.00 0.00 50 1017.3
20260901195401 95 341 0.0 3.0 0.00 0.00 0.00 50 1017.3
20260901195259 95 27 1.0 3.0 0.00 0.00 0.00 51 1017.3
20260901195159 95 97 0.0 3.0 0.00 0.00 0.00 50 1017.3
20260901195059 95 182 0.0 3.0 0.00 0.00 0.00 50 1017.3
20260901194659 95 157 2.0 4.0 0.00 0.00 0.00 48 1017.3
20260901194558 95 158 0.0 4.0 0.00 0.00 0.00 48 1017.4
20260901194359 95 252 0.0 9.0 0.00 0.00 0.00 49 1017.4
20260901194258 95 278 0.0 9.0 0.00 0.00 0.00 49 1017.4
20260901194200 95 152 0.0 9.0 0.00 0.00 0.00 49 1017.5
20260901194058 95 328 1.0 9.0 0.00 0.00 0.00 50 1017.5
20260901193959 95 98 1.0 9.0 0.00 0.00 0.00 50 1017.5
20260901193859 95 343 2.0 9.0 0.00 0.00 0.00 49 1017.4
20260901193758 95 299 2.0 9.0 0.00 0.00 0.00 49 1017.5
20260901193658 95 204 0.0 9.0 0.00 0.00 0.00 51 1017.4
20260901193558 95 244 0.0 9.0 0.00 0.00 0.00 50 1017.4
20260901193459 95 244 0.0 9.0 0.00 0.00 0.00 49 1017.5
20260901193358 95 276 4.0 9.0 0.00 0.00 0.00 49 1017.5
20260901193259 95 205 0.0 8.0 0.00 0.00 0.00 48 1017.5
20260901193200 95 248 0.0 8.0 0.00 0.00 0.00 49 1017.5
20260901193059 95 156 2.0 8.0 0.00 0.00 0.00 49 1017.5
20260901192859 95 153 3.0 8.0 0.00 0.00 0.00 49 1017.5
20260901192759 95 172 3.0 7.0 0.00 0.00 0.00 49 1017.6
20260901192558 95 327 0.0 7.0 0.00 0.00 0.00 50 1017.6
20260901192500 95 78 0.0 8.0 0.00 0.00 0.00 51 1017.5
20260901192358 95 313 0.0 8.0 0.00 0.00 0.00 51 1017.6
20260901192259 95 298 0.0 8.0 0.00 0.00 0.00 49 1017.5
20260901192200 95 184 1.0 8.0 0.00 0.00 0.00 48 1017.6
20260901192058 95 181 3.0 8.0 0.00 0.00 0.00 50 1017.7
20260901191958 95 278 3.0 8.0 0.00 0.00 0.00 51 1017.6
20260901191858 95 238 0.0 8.0 0.00 0.00 0.00 52 1017.6
20260901191759 95 192 0.0 8.0 0.00 0.00 0.00 52 1017.6
20260901191659 95 279 2.0 8.0 0.00 0.00 0.00 51 1017.7
20260901191558 95 292 0.0 5.0 0.00 0.00 0.00 52 1017.7
20260901191358 95 5 0.0 5.0 0.00 0.00 0.00 51 1017.7
20260901191258 95 209 0.0 5.0 0.00 0.00 0.00 50 1017.7
20260901191158 95 215 0.0 5.0 0.00 0.00 0.00 52 1017.8
20260901191059 94 250 0.0 5.0 0.00 0.00 0.00 52 1017.8
20260901190959 94 167 1.0 4.0 0.00 0.00 0.00 54 1017.8
20260901190858 94 234 2.0 4.0 0.00 0.00 0.00 52 1017.8
20260901190659 94 329 2.0 6.0 0.00 0.00 0.00 53 1017.8
20260901190559 94 335 2.0 6.0 0.00 0.00 0.00 52 1017.9
20260901190458 94 217 1.0 6.0 0.00 0.00 0.00 53 1017.9
20260901190358 94 176 1.0 6.0 0.00 0.00 0.00 53 1017.9
20260901190259 95 192 0.0 6.0 0.00 0.00 0.00 53 1017.9
20260901190159 94 190 0.0 6.0 0.00 0.00 0.00 53 1017.9
20260901190058 95 266 2.0 6.0 0.00 0.00 0.00 52 1017.9
20260901185900 95 175 1.0 6.0 0.00 0.00 0.00 51 1017.9
20260901185759 95 215 1.0 5.0 0.00 0.00 0.00 53 1017.9
20260901185700 95 213 2.0 5.0 0.00 0.00 0.00 52 1017.9
20260901185358 94 184 2.0 3.0 0.00 0.00 0.00 53 1018.0
20260901185259 94 207 1.0 3.0 0.00 0.00 0.00 53 1018.0
20260901185200 94 344 2.0 3.0 0.00 0.00 0.00 52 1018.1
20260901185100 94 346 1.0 3.0 0.00 0.00 0.00 53 1018.1
20260901184958 94 343 2.0 6.0 0.00 0.00 0.00 52 1018.1
20260901184858 94 327 1.0 6.0 0.00 0.00 0.00 52 1018.0
20260901184758 94 5 1.0 6.0 0.00 0.00 0.00 51 1018.1
20260901184658 94 140 0.0 6.0 0.00 0.00 0.00 50 1018.2
20260901184600 94 348 0.0 6.0 0.00 0.00 0.00 54 1018.2
20260901184258 94 109 0.0 6.0 0.00 0.00 0.00 53 1018.3
20260901184159 94 198 3.0 6.0 0.00 0.00 0.00 53 1018.4
20260901184058 94 210 3.0 6.0 0.00 0.00 0.00 53 1018.3
20260901183958 94 228 2.0 6.0 0.00 0.00 0.00 54 1018.3
20260901183758 94 46 1.0 6.0 0.00 0.00 0.00 54 1018.2
20260901183659 94 286 0.0 6.0 0.00 0.00 0.00 54 1018.2
20260901183559 94 360 1.0 6.0 0.00 0.00 0.00 52 1018.2
20260901183500 94 178 1.0 6.0 0.00 0.00 0.00 53 1018.3
20260901183301 94 175 2.0 4.0 0.00 0.00 0.00 53 1018.2
20260901183158 94 219 2.0 4.0 0.00 0.00 0.00 53 1018.3
20260901183100 94 147 1.0 4.0 0.00 0.00 0.00 53 1018.3
20260901182959 94 51 2.0 4.0 0.00 0.00 0.00 57 1018.3
20260901182800 93 294 1.0 4.0 0.00 0.00 0.00 58 1018.4
20260901182658 93 159 1.0 4.0 0.00 0.00 0.00 56 1018.3
20260901182559 93 115 2.0 5.0 0.00 0.00 0.00 56 1018.3
20260901182459 93 223 0.0 4.0 0.00 0.00 0.00 56 1018.3
20260901182359 93 209 0.0 4.0 0.00 0.00 0.00 57 1018.4
20260901182159 93 138 0.0 6.0 0.00 0.00 0.00 57 1018.4
20260901182100 93 165 1.0 6.0 0.00 0.00 0.00 57 1018.4
20260901181959 93 278 1.0 6.0 0.00 0.00 0.00 55 1018.5
20260901181858 93 292 2.0 6.0 0.00 0.00 0.00 56 1018.4
20260901181758 93 271 2.0 6.0 0.00 0.00 0.00 55 1018.4
20260901181658 93 325 2.0 6.0 0.00 0.00 0.00 57 1018.4
20260901181558 93 226 2.0 6.0 0.00 0.00 0.00 55 1018.4
20260901181459 92 162 6.0 6.0 0.00 0.00 0.00 58 1018.4
20260901181358 92 175 1.0 6.0 0.00 0.00 0.00 58 1018.4
20260901181259 92 305 3.0 7.0 0.00 0.00 0.00 58 1018.5
20260901181200 92 327 1.0 8.0 0.00 0.00 0.00 57 1018.4
20260901181059 92 194 0.0 8.0 0.00 0.00 0.00 60 1018.4
20260901180959 92 205 1.0 8.0 0.00 0.00 0.00 57 1018.4
20260901180858 92 107 0.0 8.0 0.00 0.00 0.00 57 1018.4
20260901180800 92 184 4.0 8.0 0.00 0.00 0.00 57 1018.4
20260901180659 92 173 1.0 8.0 0.00 0.00 0.00 56 1018.5
20260901180558 92 155 7.0 8.0 0.00 0.00 0.00 56 1018.5
20260901180458 92 158 3.0 8.0 0.00 0.00 0.00 56 1018.5
20260901180358 93 185 4.0 8.0 0.00 0.00 0.00 57 1018.4
20260901180258 93 207 3.0 7.0 0.00 0.00 0.00 56 1018.5
20260901180158 93 211 3.0 7.0 0.00 0.00 0.00 57 1018.5
20260901180057 92 355 2.0 7.0 0.00 0.00 0.00 57 1018.4
20260901180000 92 219 3.0 7.0 0.00 0.00 0.00 57 1018.4
20260901175859 92 200 1.0 7.0 0.00 0.00 0.00 58 1018.4
20260901175759 92 113 2.0 7.0 0.00 0.00 0.00 56 1018.4
20260901175659 92 294 1.0 7.0 0.00 0.00 0.00 56 1018.4
20260901175559 92 279 3.0 6.0 0.00 0.00 0.00 57 1018.4
20260901175458 92 189 0.0 6.0 0.00 0.00 0.00 57 1018.4
20260901175359 92 160 0.0 6.0 0.00 0.00 0.00 59 1018.5
20260901175258 92 165 0.0 8.0 0.00 0.00 0.00 58 1018.5
20260901175159 92 171 1.0 9.0 0.00 0.00 0.00 59 1018.5
20260901175059 92 146 2.0 9.0 0.00 0.00 0.00 58 1018.5
20260901174958 92 159 0.0 9.0 0.00 0.00 0.00 57 1018.5
20260901174858 92 182 1.0 9.0 0.00 0.00 0.00 57 1018.6
20260901174759 92 137 2.0 9.0 0.00 0.00 0.00 56 1018.6
20260901174559 92 154 2.0 9.0 0.00 0.00 0.00 57 1018.6
20260901174458 92 188 4.0 9.0 0.00 0.00 0.00 55 1018.5
20260901174359 92 233 2.0 9.0 0.00 0.00 0.00 56 1018.6
20260901174300 92 138 2.0 4.0 0.00 0.00 0.00 58 1018.6
20260901174202 92 313 2.0 4.0 0.00 0.00 0.00 54 1018.5
20260901174059 92 57 2.0 4.0 0.00 0.00 0.00 55 1018.5
20260901173959 92 277 1.0 4.0 0.00 0.00 0.00 55 1018.5
20260901173859 92 217 1.0 4.0 0.00 0.00 0.00 55 1018.7
20260901173658 92 276 2.0 4.0 0.00 0.00 0.00 54 1018.6
20260901173559 92 117 1.0 4.0 0.00 0.00 0.00 56 1018.6
20260901173458 92 177 2.0 4.0 0.00 0.00 0.00 54 1018.7
20260901173401 92 5 3.0 6.0 0.00 0.00 0.00 55 1018.6
20260901173158 92 175 2.0 6.0 0.00 0.00 0.00 54 1018.7
20260901173058 92 324 1.0 6.0 0.00 0.00 0.00 57 1018.6
20260901172758 92 294 0.0 6.0 0.00 0.00 0.00 55 1018.7
20260901172659 91 153 0.0 6.0 0.00 0.00 0.00 54 1018.7
20260901172559 92 226 4.0 7.0 0.00 0.00 0.00 55 1018.7
20260901172458 92 175 7.0 7.0 0.00 0.00 0.00 55 1018.7
20260901172358 92 191 2.0 6.0 0.00 0.00 0.00 56 1018.7
20260901172258 92 163 2.0 6.0 0.00 0.00 0.00 55 1018.7
20260901172159 92 181 6.0 7.0 0.00 0.00 0.00 54 1018.7
20260901172059 92 263 0.0 6.0 0.00 0.00 0.00 54 1018.7
20260901171900 92 200 3.0 3.0 0.00 0.00 0.00 55 1018.7
20260901171800 92 161 0.0 3.0 0.00 0.00 0.00 57 1018.7
20260901171658 91 190 0.0 3.0 0.00 0.00 0.00 56 1018.7
20260901171459 91 229 0.0 8.0 0.00 0.00 0.00 55 1018.8
20260901171359 91 248 0.0 8.0 0.00 0.00 0.00 56 1018.8
20260901171258 91 181 0.0 8.0 0.00 0.00 0.00 58 1018.8
20260901171158 91 161 0.0 8.0 0.00 0.00 0.00 60 1018.8
20260901171058 91 69 0.0 8.0 0.00 0.00 0.00 57 1018.8
20260901170901 91 46 0.0 8.0 0.00 0.00 0.00 57 1018.7
20260901170759 91 164 0.0 8.0 0.00 0.00 0.00 56 1018.8
20260901170658 91 182 5.0 8.0 0.00 0.00 0.00 55 1018.8
20260901170559 91 190 2.0 8.0 0.00 0.00 0.00 57 1018.8
20260901170459 91 189 4.0 8.0 0.00 0.00 0.00 57 1018.8
20260901170358 91 180 1.0 8.0 0.00 0.00 0.00 56 1018.8
20260901170258 90 355 0.0 8.0 0.00 0.00 0.00 56 1018.8
20260901170200 90 161 4.0 8.0 0.00 0.00 0.00 55 1018.7
20260901165957 90 196 0.0 7.0 0.00 0.00 0.00 57 1018.7
20260901165857 90 165 0.0 8.0 0.00 0.00 0.00 57 1018.8
20260901165758 90 136 3.0 8.0 0.00 0.00 0.00 57 1018.9
20260901165658 90 292 7.0 8.0 0.00 0.00 0.00 56 1018.8
20260901165558 90 311 2.0 8.0 0.00 0.00 0.00 56 1018.9
20260901165458 90 133 2.0 8.0 0.00 0.00 0.00 56 1018.8
20260901165358 90 161 5.0 8.0 0.00 0.00 0.00 55 1018.9
20260901165256 90 200 5.0 8.0 0.00 0.00 0.00 55 1018.9
20260901165157 90 292 2.0 8.0 0.00 0.00 0.00 56 1018.8
20260901165057 90 152 5.0 8.0 0.00 0.00 0.00 56 1018.8
20260901164957 90 135 3.0 8.0 0.00 0.00 0.00 57 1018.9
20260901164757 90 309 3.0 8.0 0.00 0.00 0.00 56 1018.9
20260901164557 90 160 0.0 5.0 0.00 0.00 0.00 56 1018.9
20260901164459 90 24 2.0 5.0 0.00 0.00 0.00 56 1018.9
20260901164400 90 253 4.0 7.0 0.00 0.00 0.00 57 1018.9
20260901164257 90 201 0.0 7.0 0.00 0.00 0.00 57 1018.9
20260901164158 90 205 2.0 7.0 0.00 0.00 0.00 58 1019.0
20260901164059 90 81 2.0 7.0 0.00 0.00 0.00 57 1018.9
20260901163958 90 102 2.0 7.0 0.00 0.00 0.00 56 1019.0
20260901163859 90 170 4.0 7.0 0.00 0.00 0.00 57 1018.9
20260901163657 90 112 1.0 7.0 0.00 0.00 0.00 57 1018.9
20260901163557 90 188 3.0 8.0 0.00 0.00 0.00 57 1019.0
20260901163459 90 177 0.0 8.0 0.00 0.00 0.00 58 1018.9
20260901163357 90 287 2.0 8.0 0.00 0.00 0.00 58 1019.0
20260901163258 90 146 3.0 8.0 0.00 0.00 0.00 57 1019.0
20260901163157 90 30 0.0 8.0 0.00 0.00 0.00 58 1019.1
20260901163058 90 205 5.0 8.0 0.00 0.00 0.00 58 1019.1
20260901162957 90 190 1.0 8.0 0.00 0.00 0.00 58 1019.0
20260901162758 90 200 2.0 8.0 0.00 0.00 0.00 56 1019.1
20260901162558 90 196 1.0 5.0 0.00 0.00 0.00 57 1018.9
20260901162458 90 187 4.0 5.0 0.00 0.00 0.00 58 1019.0
20260901162357 90 308 1.0 5.0 0.00 0.00 0.00 58 1019.0
20260901162259 90 18 2.0 7.0 0.00 0.00 0.00 58 1019.0
20260901162158 90 298 2.0 7.0 0.00 0.00 0.00 59 1019.0
20260901161957 89 150 1.0 7.0 0.00 0.00 0.00 58 1019.1
20260901161901 89 190 3.0 8.0 0.00 0.00 0.00 58 1019.1
20260901161758 89 195 1.0 8.0 0.00 0.00 0.00 58 1019.0
20260901161657 89 184 1.0 8.0 0.00 0.00 0.00 59 1019.0
20260901161557 89 173 2.0 9.0 0.00 0.00 0.00 58 1019.0
20260901161457 89 186 4.0 9.0 0.00 0.00 0.00 58 1019.0
20260901161258 89 45 1.0 9.0 0.00 0.00 0.00 59 1019.0
20260901161057 89 26 1.0 9.0 0.00 0.00 0.00 58 1019.0
20260901160959 89 192 4.0 9.0 0.00 0.00 0.00 58 1019.0
20260901160857 89 123 2.0 9.0 0.00 0.00 0.00 58 1019.0
20260901160757 89 284 3.0 9.0 0.00 0.00 0.00 58 1019.0
20260901160659 89 181 5.0 9.0 0.00 0.00 0.00 58 1019.0
20260901160558 89 227 5.0 9.0 0.00 0.00 0.00 58 1019.0
20260901160457 89 191 3.0 8.0 0.00 0.00 0.00 59 1019.0
20260901160357 89 181 3.0 8.0 0.00 0.00 0.00 60 1019.0
20260901160157 89 263 1.0 8.0 0.00 0.00 0.00 60 1019.1
20260901160000 89 296 2.0 8.0 0.00 0.00 0.00 59 1019.1
20260901155858 89 170 1.0 6.0 0.00 0.00 0.00 58 1019.1
20260901155759 89 237 4.0 6.0 0.00 0.00 0.00 58 1019.1
20260901155658 89 306 2.0 4.0 0.00 0.00 0.00 59 1019.2
20260901155458 89 190 1.0 5.0 0.00 0.00 0.00 59 1019.1
20260901155258 89 319 2.0 5.0 0.00 0.00 0.00 60 1019.2
20260901155200 89 181 1.0 5.0 0.00 0.00 0.00 60 1019.1
20260901155058 89 224 2.0 5.0 0.00 0.00 0.00 60 1019.1
20260901154958 88 360 3.0 9.0 0.00 0.00 0.00 60 1019.1
20260901154859 88 275 0.0 9.0 0.00 0.00 0.00 60 1019.2
20260901154758 88 339 1.0 9.0 0.00 0.00 0.00 61 1019.1
20260901154659 88 175 6.0 9.0 0.00 0.00 0.00 61 1019.1
20260901154558 88 351 1.0 9.0 0.00 0.00 0.00 61 1019.2
20260901154258 88 180 1.0 9.0 0.00 0.00 0.00 60 1019.2
20260901154159 88 206 3.0 9.0 0.00 0.00 0.00 60 1019.1
20260901154101 88 158 2.0 7.0 0.00 0.00 0.00 60 1019.2
20260901153959 88 207 3.0 7.0 0.00 0.00 0.00 60 1019.3
20260901153900 88 165 4.0 7.0 0.00 0.00 0.00 61 1019.2
20260901153800 88 260 0.0 7.0 0.00 0.00 0.00 61 1019.2
20260901153659 88 263 3.0 7.0 0.00 0.00 0.00 60 1019.4
20260901153601 88 287 2.0 8.0 0.00 0.00 0.00 61 1019.3
20260901153259 87 169 0.0 8.0 0.00 0.00 0.00 62 1019.4
20260901153158 87 283 1.0 8.0 0.00 0.00 0.00 61 1019.4
20260901153059 87 181 1.0 8.0 0.00 0.00 0.00 62 1019.4
20260901152959 87 218 2.0 8.0 0.00 0.00 0.00 61 1019.3
20260901152859 87 236 2.0 8.0 0.00 0.00 0.00 62 1019.3
20260901152758 87 211 2.0 8.0 0.00 0.00 0.00 61 1019.3
20260901152659 87 313 4.0 8.0 0.00 0.00 0.00 62 1019.3
20260901152559 87 31 2.0 8.0 0.00 0.00 0.00 62 1019.3
20260901152500 87 182 2.0 8.0 0.00 0.00 0.00 61 1019.3
20260901152358 87 67 1.0 8.0 0.00 0.00 0.00 61 1019.4
20260901152257 87 173 3.0 8.0 0.00 0.00 0.00 62 1019.4
20260901152159 87 238 2.0 8.0 0.00 0.00 0.00 62 1019.3
20260901152101 87 285 1.0 8.0 0.00 0.00 0.00 62 1019.3
20260901151959 87 183 3.0 8.0 0.00 0.00 0.00 62 1019.4
20260901151900 87 172 3.0 8.0 0.00 0.00 0.00 62 1019.3
20260901151659 87 130 4.0 7.0 0.00 0.00 0.00 61 1019.3
20260901151559 87 177 1.0 7.0 0.00 0.00 0.00 62 1019.3
20260901151458 87 176 2.0 7.0 0.00 0.00 0.00 63 1019.4
20260901151358 87 173 1.0 7.0 0.00 0.00 0.00 63 1019.3
20260901151259 87 159 4.0 7.0 0.00 0.00 0.00 63 1019.4
20260901151158 87 315 0.0 7.0 0.00 0.00 0.00 62 1019.3
20260901151103 87 294 1.0 7.0 0.00 0.00 0.00 62 1019.3
20260901150959 87 269 2.0 6.0 0.00 0.00 0.00 63 1019.3
20260901150901 87 277 2.0 6.0 0.00 0.00 0.00 63 1019.3
20260901150800 87 183 3.0 6.0 0.00 0.00 0.00 63 1019.2
20260901150701 86 288 2.0 6.0 0.00 0.00 0.00 63 1019.3
20260901150600 86 355 1.0 4.0 0.00 0.00 0.00 65 1019.2
20260901150358 86 201 0.0 7.0 0.00 0.00 0.00 65 1019.2
20260901150259 86 172 2.0 7.0 0.00 0.00 0.00 65 1019.2
20260901150159 86 184 1.0 7.0 0.00 0.00 0.00 65 1019.2
20260901150100 86 279 1.0 7.0 0.00 0.00 0.00 65 1019.3
20260901145858 86 275 1.0 7.0 0.00 0.00 0.00 64 1019.3
20260901145800 86 180 2.0 7.0 0.00 0.00 0.00 64 1019.3
20260901145700 86 173 3.0 7.0 0.00 0.00 0.00 64 1019.3
20260901145558 86 197 1.0 7.0 0.00 0.00 0.00 64 1019.3
20260901145400 85 184 4.0 6.0 0.00 0.00 0.00 64 1019.3
20260901145258 85 261 0.0 6.0 0.00 0.00 0.00 64 1019.2
20260901145159 85 196 3.0 6.0 0.00 0.00 0.00 64 1019.2
20260901144959 85 153 3.0 6.0 0.00 0.00 0.00 65 1019.2
20260901144858 85 151 0.0 6.0 0.00 0.00 0.00 64 1019.3
20260901144758 85 126 2.0 6.0 0.00 0.00 0.00 64 1019.3
20260901144601 85 145 1.0 6.0 0.00 0.00 0.00 65 1019.3
20260901144458 85 277 0.0 6.0 0.00 0.00 0.00 66 1019.3
20260901144359 85 40 0.0 6.0 0.00 0.00 0.00 65 1019.3
20260901144258 85 274 2.0 6.0 0.00 0.00 0.00 66 1019.4
20260901144158 85 192 4.0 8.0 0.00 0.00 0.00 66 1019.3
20260901144058 85 315 3.0 8.0 0.00 0.00 0.00 66 1019.2
20260901143959 84 184 2.0 8.0 0.00 0.00 0.00 66 1019.4
20260901143758 84 200 1.0 8.0 0.00 0.00 0.00 66 1019.3
20260901143658 84 188 0.0 8.0 0.00 0.00 0.00 66 1019.4
20260901143558 84 15 0.0 8.0 0.00 0.00 0.00 66 1019.3
20260901143501 84 167 1.0 8.0 0.00 0.00 0.00 65 1019.5
20260901143358 84 182 0.0 8.0 0.00 0.00 0.00 66 1019.4
20260901143259 84 207 6.0 8.0 0.00 0.00 0.00 65 1019.4
20260901143159 84 213 3.0 7.0 0.00 0.00 0.00 66 1019.4
20260901143058 84 194 4.0 7.0 0.00 0.00 0.00 66 1019.5
20260901142959 84 225 1.0 7.0 0.00 0.00 0.00 66 1019.4
20260901142859 84 244 3.0 7.0 0.00 0.00 0.00 67 1019.4
20260901142801 84 167 6.0 7.0 0.00 0.00 0.00 67 1019.4
20260901142659 84 190 0.0 7.0 0.00 0.00 0.00 67 1019.5
20260901142600 84 176 0.0 7.0 0.00 0.00 0.00 67 1019.5
20260901142459 84 165 1.0 7.0 0.00 0.00 0.00 67 1019.5
20260901142400 84 140 0.0 7.0 0.00 0.00 0.00 66 1019.5
20260901142258 84 290 3.0 7.0 0.00 0.00 0.00 67 1019.5
20260901142158 84 125 1.0 6.0 0.00 0.00 0.00 68 1019.5
20260901142058 84 186 0.0 6.0 0.00 0.00 0.00 68 1019.5
20260901141958 84 194 1.0 6.0 0.00 0.00 0.00 68 1019.5
20260901141859 84 194 1.0 6.0 0.00 0.00 0.00 68 1019.5
20260901141759 83 295 5.0 5.0 0.00 0.00 0.00 69 1019.5
20260901141658 83 227 0.0 3.0 0.00 0.00 0.00 69 1019.6
20260901141559 83 262 1.0 3.0 0.00 0.00 0.00 69 1019.5
20260901141458 83 194 1.0 3.0 0.00 0.00 0.00 69 1019.6
20260901141358 83 190 1.0 3.0 0.00 0.00 0.00 68 1019.6
20260901141300 83 212 1.0 3.0 0.00 0.00 0.00 68 1019.6
20260901141058 83 252 0.0 6.0 0.00 0.00 0.00 69 1019.6
20260901140958 83 314 0.0 6.0 0.00 0.00 0.00 69 1019.5
20260901140858 83 205 0.0 6.0 0.00 0.00 0.00 70 1019.6
20260901140759 83 179 0.0 6.0 0.00 0.00 0.00 70 1019.6
20260901140659 83 186 0.0 6.0 0.00 0.00 0.00 70 1019.5
20260901140558 82 266 0.0 6.0 0.00 0.00 0.00 69 1019.5
20260901140458 82 281 0.0 6.0 0.00 0.00 0.00 69 1019.5
20260901140358 82 222 0.0 6.0 0.00 0.00 0.00 69 1019.6
20260901140157 82 218 2.0 5.0 0.00 0.00 0.00 69 1019.5
20260901140057 82 283 3.0 5.0 0.00 0.00 0.00 69 1019.5
20260901140001 82 143 0.0 5.0 0.00 0.00 0.00 69 1019.5
20260901135859 82 200 1.0 5.0 0.00 0.00 0.00 69 1019.6
20260901135758 82 281 2.0 5.0 0.00 0.00 0.00 69 1019.5
20260901135600 82 169 1.0 4.0 0.00 0.00 0.00 69 1019.5
20260901135458 82 167 1.0 4.0 0.00 0.00 0.00 69 1019.5
20260901135257 82 89 0.0 4.0 0.00 0.00 0.00 70 1019.4
20260901135059 82 269 1.0 4.0 0.00 0.00 0.00 69 1019.3
20260901134958 82 276 2.0 5.0 0.00 0.00 0.00 70 1019.3
20260901134858 82 215 0.0 8.0 0.00 0.00 0.00 70 1019.3
20260901134800 82 152 1.0 8.0 0.00 0.00 0.00 70 1019.4
20260901134559 82 286 2.0 8.0 0.00 0.00 0.00 69 1019.3
20260901134459 82 98 0.0 8.0 0.00 0.00 0.00 70 1019.3
20260901134259 82 177 0.0 8.0 0.00 0.00 0.00 70 1019.2
20260901134158 82 181 0.0 8.0 0.00 0.00 0.00 70 1019.2
20260901134100 82 186 1.0 8.0 0.00 0.00 0.00 70 1019.1
20260901133958 82 306 3.0 6.0 0.00 0.00 0.00 70 1019.1
20260901133858 82 167 4.0 6.0 0.00 0.00 0.00 70 1019.2
20260901133800 81 211 5.0 6.0 0.00 0.00 0.00 71 1019.1
20260901133701 81 177 2.0 4.0 0.00 0.00 0.00 71 1019.2
20260901133459 81 221 1.0 4.0 0.00 0.00 0.00 71 1019.3
20260901133302 81 265 0.0 5.0 0.00 0.00 0.00 72 1019.3
20260901133159 81 137 1.0 5.0 0.00 0.00 0.00 72 1019.3
20260901132959 80 337 0.0 5.0 0.00 0.00 0.00 72 1019.3
20260901132900 80 277 3.0 5.0 0.00 0.00 0.00 73 1019.3
20260901132803 80 167 0.0 5.0 0.00 0.00 0.00 72 1019.2
20260901132658 80 202 2.0 5.0 0.00 0.00 0.00 73 1019.2
20260901132603 80 185 0.0 5.0 0.00 0.00 0.00 72 1019.2
20260901132459 80 186 3.0 5.0 0.00 0.00 0.00 72 1019.2
20260901132359 80 150 3.0 5.0 0.00 0.00 0.00 73 1019.1
20260901132200 80 157 1.0 5.0 0.00 0.00 0.00 73 1019.1
20260901131901 79 233 0.0 5.0 0.00 0.00 0.00 74 1019.0
20260901131759 79 194 4.0 5.0 0.00 0.00 0.00 74 1019.2
20260901131659 79 139 0.0 5.0 0.00 0.00 0.00 74 1019.1
20260901131559 79 234 1.0 5.0 0.00 0.00 0.00 74 1019.1
20260901131458 79 180 3.0 5.0 0.00 0.00 0.00 74 1019.1
20260901131258 79 169 2.0 5.0 0.00 0.00 0.00 75 1019.2
20260901131059 79 175 2.0 6.0 0.00 0.00 0.00 75 1019.3
20260901130959 79 173 3.0 6.0 0.00 0.00 0.00 75 1019.2
20260901130901 79 313 1.0 6.0 0.00 0.00 0.00 75 1019.3
20260901130759 78 229 3.0 6.0 0.00 0.00 0.00 75 1019.4
20260901130659 78 167 1.0 6.0 0.00 0.00 0.00 75 1019.4
20260901130559 78 290 1.0 6.0 0.00 0.00 0.00 75 1019.5
20260901130359 78 162 0.0 6.0 0.00 0.00 0.00 75 1019.5
20260901130059 78 183 2.0 5.0 0.00 0.00 0.00 76 1019.5
20260901130001 78 170 1.0 5.0 0.00 0.00 0.00 76 1019.5
20260901125858 78 175 6.0 6.0 0.00 0.00 0.00 76 1019.5
20260901125657 78 185 0.0 4.0 0.00 0.00 0.00 77 1019.5
20260901125601 78 162 0.0 4.0 0.00 0.00 0.00 76 1019.5
20260901125459 78 162 0.0 4.0 0.00 0.00 0.00 76 1019.5
20260901125359 78 298 0.0 4.0 0.00 0.00 0.00 77 1019.6
20260901125258 77 259 0.0 4.0 0.00 0.00 0.00 77 1019.5
20260901125158 77 170 0.0 4.0 0.00 0.00 0.00 77 1019.5
20260901124957 77 269 0.0 4.0 0.00 0.00 0.00 77 1019.5
20260901124758 77 244 0.0 3.0 0.00 0.00 0.00 77 1019.5
20260901124657 77 180 1.0 3.0 0.00 0.00 0.00 77 1019.5
20260901124559 77 243 1.0 3.0 0.00 0.00 0.00 77 1019.5
20260901124458 77 289 0.0 3.0 0.00 0.00 0.00 78 1019.4
20260901124358 77 249 0.0 3.0 0.00 0.00 0.00 78 1019.5
20260901124258 77 198 0.0 3.0 0.00 0.00 0.00 78 1019.5
20260901124157 77 315 0.0 3.0 0.00 0.00 0.00 78 1019.5
20260901124100 76 302 0.0 3.0 0.00 0.00 0.00 78 1019.5
20260901123858 76 257 0.0 3.0 0.00 0.00 0.00 78 1019.4
20260901123759 76 135 0.0 3.0 0.00 0.00 0.00 78 1019.5
20260901123657 76 261 0.0 3.0 0.00 0.00 0.00 78 1019.5
20260901123557 76 178 0.0 3.0 0.00 0.00 0.00 79 1019.5
20260901123457 76 207 0.0 3.0 0.00 0.00 0.00 79 1019.5
20260901123358 76 233 0.0 3.0 0.00 0.00 0.00 79 1019.4
20260901123257 76 269 3.0 3.0 0.00 0.00 0.00 79 1019.6
20260901123158 76 200 0.0 3.0 0.00 0.00 0.00 79 1019.5
20260901123057 76 197 0.0 3.0 0.00 0.00 0.00 79 1019.5
20260901122957 76 206 0.0 3.0 0.00 0.00 0.00 79 1019.4
20260901122857 76 243 0.0 3.0 0.00 0.00 0.00 79 1019.4
20260901122758 76 150 0.0 3.0 0.00 0.00 0.00 79 1019.4
20260901122659 76 179 0.0 3.0 0.00 0.00 0.00 80 1019.4
20260901122458 76 293 1.0 3.0 0.00 0.00 0.00 79 1019.4
20260901122357 75 196 0.0 3.0 0.00 0.00 0.00 79 1019.3
20260901122258 75 183 0.0 3.0 0.00 0.00 0.00 80 1019.4
20260901121957 75 170 0.0 3.0 0.00 0.00 0.00 80 1019.4
20260901121858 75 169 2.0 3.0 0.00 0.00 0.00 80 1019.4
20260901121757 75 192 2.0 3.0 0.00 0.00 0.00 80 1019.4
20260901121658 75 181 2.0 3.0 0.00 0.00 0.00 80 1019.5
20260901121557 75 215 2.0 3.0 0.00 0.00 0.00 80 1019.4
20260901121459 75 204 1.0 3.0 0.00 0.00 0.00 80 1019.3
20260901121257 75 226 0.0 1.0 0.00 0.00 0.00 80 1019.3
20260901121158 75 190 0.0 1.0 0.00 0.00 0.00 80 1019.4
20260901121101 75 274 0.0 1.0 0.00 0.00 0.00 80 1019.3
20260901120957 75 171 1.0 1.0 0.00 0.00 0.00 80 1019.3
20260901120757 75 173 0.0 1.0 0.00 0.00 0.00 81 1019.3
20260901120656 75 173 0.0 1.0 0.00 0.00 0.00 81 1019.2
20260901120459 75 182 0.0 1.0 0.00 0.00 0.00 81 1019.3
20260901120357 74 179 0.0 1.0 0.00 0.00 0.00 81 1019.2
20260901120257 74 179 0.0 1.0 0.00 0.00 0.00 81 1019.3
20260901120157 74 167 0.0 2.0 0.00 0.00 0.00 81 1019.2
20260901120057 74 235 0.0 2.0 0.00 0.00 0.00 81 1019.2
20260901115857 74 171 0.0 2.0 0.00 0.00 0.00 82 1019.2
20260901115758 74 207 0.0 2.0 0.00 0.00 0.00 82 1019.2
20260901115658 74 180 0.0 3.0 0.00 0.00 0.00 82 1019.2
20260901115558 74 180 0.0 3.0 0.00 0.00 0.00 82 1019.1
20260901115458 74 180 0.0 3.0 0.00 0.00 0.00 82 1019.2
20260901115357 74 195 0.0 3.0 0.00 0.00 0.00 82 1019.0
20260901115257 74 195 1.0 3.0 0.00 0.00 0.00 82 1019.1
20260901115158 74 199 1.0 3.0 0.00 0.00 0.00 82 1019.1
20260901114957 74 202 1.0 3.0 0.00 0.00 0.00 83 1019.1
20260901114759 74 216 1.0 3.0 0.00 0.00 0.00 83 1019.0
20260901114658 73 257 0.0 2.0 0.00 0.00 0.00 83 1019.0
20260901114558 73 259 0.0 2.0 0.00 0.00 0.00 83 1019.0
20260901114457 73 279 0.0 2.0 0.00 0.00 0.00 83 1019.0
20260901114357 73 257 0.0 2.0 0.00 0.00 0.00 83 1019.0
20260901114257 73 254 0.0 2.0 0.00 0.00 0.00 83 1019.0
20260901114157 73 215 0.0 2.0 0.00 0.00 0.00 83 1019.0
20260901114057 73 215 0.0 2.0 0.00 0.00 0.00 83 1019.0
20260901113759 73 197 0.0 0.0 0.00 0.00 0.00 83 1018.9
20260901113657 73 197 0.0 0.0 0.00 0.00 0.00 83 1018.9
20260901113559 73 174 0.0 0.0 0.00 0.00 0.00 83 1018.9
20260901113458 73 227 0.0 0.0 0.00 0.00 0.00 83 1018.9
20260901113358 73 226 0.0 0.0 0.00 0.00 0.00 83 1018.9
20260901113257 73 244 0.0 0.0 0.00 0.00 0.00 83 1018.9
20260901113200 73 244 0.0 0.0 0.00 0.00 0.00 83 1018.8
20260901113057 73 198 0.0 0.0 0.00 0.00 0.00 83 1018.9
20260901112958 73 198 0.0 0.0 0.00 0.00 0.00 83 1018.9
20260901112858 73 198 0.0 0.0 0.00 0.00 0.00 83 1018.9
20260901112757 73 198 0.0 0.0 0.00 0.00 0.00 83 1018.8
20260901112457 73 198 0.0 0.0 0.00 0.00 0.00 83 1018.8
20260901112357 73 198 0.0 0.0 0.00 0.00 0.00 83 1018.7
20260901112257 73 198 0.0 0.0 0.00 0.00 0.00 84 1018.7
20260901112158 73 198 0.0 0.0 0.00 0.00 0.00 83 1018.7
20260901111957 73 198 0.0 0.0 0.00 0.00 0.00 83 1018.7
20260901111900 73 198 0.0 0.0 0.00 0.00 0.00 83 1018.7
20260901111658 73 198 0.0 0.0 0.00 0.00 0.00 83 1018.7
20260901111557 73 198 0.0 0.0 0.00 0.00 0.00 83 1018.7
20260901111458 73 198 0.0 0.0 0.00 0.00 0.00 83 1018.7
20260901111357 73 198 0.0 0.0 0.00 0.00 0.00 83 1018.6
20260901111257 73 198 0.0 0.0 0.00 0.00 0.00 83 1018.7
20260901111158 73 198 0.0 0.0 0.00 0.00 0.00 83 1018.6
20260901111057 73 198 0.0 0.0 0.00 0.00 0.00 83 1018.6
20260901110857 73 198 0.0 0.0 0.00 0.00 0.00 83 1018.6
20260901110757 73 198 0.0 0.0 0.00 0.00 0.00 83 1018.6
20260901110657 73 198 0.0 0.0 0.00 0.00 0.00 83 1018.5
20260901110458 73 198 0.0 0.0 0.00 0.00 0.00 83 1018.6
20260901110356 73 198 0.0 0.0 0.00 0.00 0.00 83 1018.6
20260901110257 73 198 0.0 0.0 0.00 0.00 0.00 83 1018.5
20260901110157 73 198 0.0 0.0 0.00 0.00 0.00 83 1018.5
20260901110057 73 198 0.0 0.0 0.00 0.00 0.00 83 1018.6
20260901110003 73 198 0.0 0.0 0.00 0.00 0.00 83 1018.6
20260901105900 73 198 0.0 0.0 0.00 0.00 0.00 83 1018.5
20260901105758 73 198 0.0 0.0 0.00 0.00 0.00 83 1018.6
20260901105658 73 198 0.0 0.0 0.00 0.00 0.00 83 1018.6
20260901105558 73 198 0.0 0.0 0.00 0.00 0.00 83 1018.6
20260901105359 73 198 0.0 0.0 0.00 0.00 0.00 83 1018.6
20260901105258 73 198 0.0 0.0 0.00 0.00 0.00 83 1018.6
20260901105200 73 198 0.0 0.0 0.00 0.00 0.00 83 1018.6
20260901104959 73 198 0.0 0.0 0.00 0.00 0.00 83 1018.6
20260901104859 73 198 0.0 0.0 0.00 0.00 0.00 83 1018.6
20260901104658 73 204 0.0 0.0 0.00 0.00 0.00 83 1018.5
20260901104558 73 204 0.0 0.0 0.00 0.00 0.00 83 1018.5
20260901104358 73 204 0.0 0.0 0.00 0.00 0.00 83 1018.4
20260901104259 73 204 0.0 0.0 0.00 0.00 0.00 82 1018.5
20260901104159 73 204 0.0 0.0 0.00 0.00 0.00 82 1018.4
20260901104058 73 204 0.0 0.0 0.00 0.00 0.00 82 1018.4
20260901103959 73 204 0.0 0.0 0.00 0.00 0.00 82 1018.4
20260901103900 73 204 0.0 0.0 0.00 0.00 0.00 82 1018.4
20260901103758 73 204 0.0 0.0 0.00 0.00 0.00 82 1018.4
20260901103658 73 204 0.0 0.0 0.00 0.00 0.00 82 1018.4
20260901103601 73 204 0.0 0.0 0.00 0.00 0.00 82 1018.4
20260901103458 73 204 0.0 0.0 0.00 0.00 0.00 82 1018.4
20260901103401 73 204 0.0 0.0 0.00 0.00 0.00 82 1018.3
20260901103258 73 204 0.0 0.0 0.00 0.00 0.00 82 1018.4
20260901103201 73 204 0.0 0.0 0.00 0.00 0.00 82 1018.4
20260901103058 73 204 0.0 0.0 0.00 0.00 0.00 82 1018.3
20260901103000 73 204 0.0 0.0 0.00 0.00 0.00 82 1018.3
20260901102758 73 204 0.0 0.0 0.00 0.00 0.00 82 1018.3
20260901102559 73 204 0.0 0.0 0.00 0.00 0.00 82 1018.3
20260901102502 73 204 0.0 0.0 0.00 0.00 0.00 82 1018.2
20260901102359 74 204 0.0 0.0 0.00 0.00 0.00 82 1018.3
20260901102257 74 204 0.0 0.0 0.00 0.00 0.00 82 1018.2
20260901102200 74 204 0.0 0.0 0.00 0.00 0.00 82 1018.2
20260901102057 74 204 0.0 0.0 0.00 0.00 0.00 82 1018.2
20260901101858 74 204 0.0 0.0 0.00 0.00 0.00 82 1018.3
20260901101800 74 204 0.0 0.0 0.00 0.00 0.00 82 1018.3
20260901101657 74 204 0.0 0.0 0.00 0.00 0.00 82 1018.3
20260901101558 74 204 0.0 0.0 0.00 0.00 0.00 82 1018.3
20260901101259 74 204 0.0 0.0 0.00 0.00 0.00 82 1018.2
20260901101158 74 204 0.0 0.0 0.00 0.00 0.00 82 1018.3
20260901100958 74 204 0.0 0.0 0.00 0.00 0.00 81 1018.2
20260901100859 74 204 0.0 0.0 0.00 0.00 0.00 81 1018.2
20260901100801 74 204 0.0 0.0 0.00 0.00 0.00 81 1018.2
20260901100658 74 204 0.0 0.0 0.00 0.00 0.00 81 1018.1
20260901100558 74 204 0.0 0.0 0.00 0.00 0.00 81 1018.1
20260901100458 74 204 0.0 0.0 0.00 0.00 0.00 81 1018.2
20260901100400 74 171 0.0 0.0 0.00 0.00 0.00 81 1018.2
20260901100258 74 171 0.0 0.0 0.00 0.00 0.00 81 1018.0
20260901100158 74 171 0.0 0.0 0.00 0.00 0.00 81 1018.1
20260901100058 74 171 0.0 0.0 0.00 0.00 0.00 81 1018.1
20260901095957 74 171 0.0 0.0 0.00 0.00 0.00 81 1018.1
20260901095758 74 171 0.0 0.0 0.00 0.00 0.00 81 1018.1
20260901095657 74 171 0.0 0.0 0.00 0.00 0.00 81 1018.1
20260901095558 74 171 0.0 0.0 0.00 0.00 0.00 81 1018.2
20260901095457 74 171 0.0 0.0 0.00 0.00 0.00 81 1018.1
20260901095357 74 171 0.0 0.0 0.00 0.00 0.00 82 1018.1
20260901095057 74 171 0.0 0.0 0.00 0.00 0.00 82 1018.1
20260901094957 74 171 0.0 0.0 0.00 0.00 0.00 82 1018.1
20260901094759 74 171 0.0 0.0 0.00 0.00 0.00 82 1018.1
20260901094657 74 171 0.0 0.0 0.00 0.00 0.00 82 1018.1
20260901094558 74 175 0.0 0.0 0.00 0.00 0.00 82 1018.1
20260901094359 74 175 0.0 0.0 0.00 0.00 0.00 82 1018.1
20260901094157 74 167 0.0 0.0 0.00 0.00 0.00 82 1018.1
20260901094057 74 167 0.0 0.0 0.00 0.00 0.00 82 1018.1
20260901093958 74 167 0.0 0.0 0.00 0.00 0.00 82 1018.0
20260901093858 74 229 0.0 0.0 0.00 0.00 0.00 82 1017.9
20260901093658 74 229 0.0 0.0 0.00 0.00 0.00 82 1018.0
20260901093458 74 229 0.0 0.0 0.00 0.00 0.00 82 1017.9
20260901093357 74 229 0.0 0.0 0.00 0.00 0.00 82 1017.8
20260901093156 74 229 0.0 0.0 0.00 0.00 0.00 81 1017.8
20260901093058 74 229 0.0 0.0 0.00 0.00 0.00 81 1017.8
20260901093000 74 229 0.0 0.0 0.00 0.00 0.00 81 1017.8
20260901092757 74 229 0.0 0.0 0.00 0.00 0.00 81 1017.8
20260901092657 74 229 0.0 0.0 0.00 0.00 0.00 81 1017.8
20260901092557 74 229 0.0 0.0 0.00 0.00 0.00 81 1017.8
20260901092357 74 229 0.0 0.0 0.00 0.00 0.00 81 1017.8
20260901092259 74 229 0.0 0.0 0.00 0.00 0.00 81 1017.8
20260901092157 74 229 0.0 0.0 0.00 0.00 0.00 81 1017.8
20260901091956 74 208 0.0 0.0 0.00 0.00 0.00 81 1017.9
20260901091858 74 208 0.0 0.0 0.00 0.00 0.00 81 1017.8
20260901091756 74 208 0.0 0.0 0.00 0.00 0.00 81 1017.8
20260901091557 74 208 0.0 0.0 0.00 0.00 0.00 81 1017.8
20260901091457 74 208 0.0 0.0 0.00 0.00 0.00 81 1017.8
20260901091358 74 208 0.0 0.0 0.00 0.00 0.00 81 1017.8
20260901091259 74 208 0.0 0.0 0.00 0.00 0.00 80 1017.8
20260901091157 74 208 0.0 0.0 0.00 0.00 0.00 80 1017.9
20260901091059 75 208 0.0 0.0 0.00 0.00 0.00 80 1017.8
20260901090958 75 208 0.0 0.0 0.00 0.00 0.00 80 1017.8
20260901090857 75 208 0.0 0.0 0.00 0.00 0.00 80 1017.8
20260901090757 75 208 0.0 0.0 0.00 0.00 0.00 80 1017.8
20260901090657 75 208 0.0 0.0 0.00 0.00 0.00 80 1017.8
20260901090458 75 208 0.0 0.0 0.00 0.00 0.00 79 1017.7
20260901090257 75 208 0.0 0.0 0.00 0.00 0.00 80 1017.7
20260901090158 75 208 0.0 0.0 0.00 0.00 0.00 79 1017.7
20260901090100 75 208 0.0 0.0 0.00 0.00 0.00 80 1017.7
20260901085957 75 208 0.0 0.0 0.00 0.00 0.00 80 1017.7
20260901085858 75 208 0.0 0.0 0.00 0.00 0.00 79 1017.7
20260901085656 75 208 0.0 0.0 0.00 0.00 0.00 79 1017.7
20260901085557 75 208 0.0 0.0 0.00 0.00 0.00 79 1017.6
20260901085457 75 208 0.0 0.0 0.00 0.00 0.00 79 1017.7
20260901085358 75 234 0.0 0.0 0.00 0.00 0.00 79 1017.7
20260901085259 75 234 0.0 0.0 0.00 0.00 0.00 79 1017.7
20260901085157 75 234 0.0 0.0 0.00 0.00 0.00 79 1017.6
20260901084956 75 234 0.0 0.0 0.00 0.00 0.00 79 1017.6
20260901084859 75 234 0.0 0.0 0.00 0.00 0.00 79 1017.6
20260901084756 75 234 0.0 0.0 0.00 0.00 0.00 79 1017.7
20260901084658 75 234 0.0 0.0 0.00 0.00 0.00 79 1017.6
20260901084557 75 234 0.0 0.0 0.00 0.00 0.00 78 1017.7
20260901084458 75 234 0.0 0.0 0.00 0.00 0.00 78 1017.6
20260901084359 76 234 0.0 0.0 0.00 0.00 0.00 78 1017.6
20260901084157 76 288 0.0 0.0 0.00 0.00 0.00 78 1017.7
20260901084057 76 288 0.0 0.0 0.00 0.00 0.00 78 1017.6
20260901083956 76 288 0.0 0.0 0.00 0.00 0.00 78 1017.6
20260901083756 76 288 0.0 0.0 0.00 0.00 0.00 78 1017.7
20260901083457 76 288 0.0 0.0 0.00 0.00 0.00 78 1017.6
20260901083357 76 288 0.0 0.0 0.00 0.00 0.00 77 1017.6
20260901083257 76 288 0.0 0.0 0.00 0.00 0.00 77 1017.7
20260901083157 76 288 0.0 0.0 0.00 0.00 0.00 77 1017.6
20260901083058 76 288 0.0 0.0 0.00 0.00 0.00 77 1017.6
20260901082959 76 288 0.0 0.0 0.00 0.00 0.00 77 1017.6
20260901082558 76 288 0.0 0.0 0.00 0.00 0.00 77 1017.6
20260901082458 76 288 0.0 0.0 0.00 0.00 0.00 77 1017.6
20260901082400 76 288 0.0 0.0 0.00 0.00 0.00 76 1017.6
20260901082257 76 288 0.0 0.0 0.00 0.00 0.00 76 1017.5
20260901082058 76 288 0.0 0.0 0.00 0.00 0.00 76 1017.5
20260901081957 76 288 0.0 0.0 0.00 0.00 0.00 76 1017.5
20260901081857 76 288 0.0 0.0 0.00 0.00 0.00 76 1017.5
20260901081757 76 288 0.0 0.0 0.00 0.00 0.00 76 1017.6
20260901081659 77 288 0.0 0.0 0.00 0.00 0.00 76 1017.5
20260901081557 77 287 0.0 0.0 0.00 0.00 0.00 76 1017.6
20260901081456 77 290 0.0 0.0 0.00 0.00 0.00 76 1017.6
20260901081357 77 290 0.0 0.0 0.00 0.00 0.00 76 1017.5
20260901081257 77 290 0.0 0.0 0.00 0.00 0.00 76 1017.6
20260901081158 77 227 0.0 0.0 0.00 0.00 0.00 76 1017.6
20260901081057 77 227 0.0 0.0 0.00 0.00 0.00 76 1017.5
20260901080957 77 227 0.0 0.0 0.00 0.00 0.00 76 1017.6
20260901080858 77 227 0.0 0.0 0.00 0.00 0.00 76 1017.5
20260901080757 77 227 0.0 0.0 0.00 0.00 0.00 76 1017.6
20260901080657 77 227 0.0 0.0 0.00 0.00 0.00 76 1017.5
20260901080557 77 190 0.0 0.0 0.00 0.00 0.00 76 1017.5
20260901080458 77 190 0.0 0.0 0.00 0.00 0.00 76 1017.5
20260901080257 77 198 0.0 1.0 0.00 0.00 0.00 76 1017.4
20260901080158 77 293 0.0 1.0 0.00 0.00 0.00 75 1017.4
20260901080057 77 287 0.0 1.0 0.00 0.00 0.00 76 1017.4
20260901075957 77 294 0.0 1.0 0.00 0.00 0.00 75 1017.4
20260901075857 77 254 0.0 1.0 0.00 0.00 0.00 75 1017.5
20260901075757 77 277 0.0 1.0 0.00 0.00 0.00 75 1017.5
20260901075559 77 275 0.0 1.0 0.00 0.00 0.00 75 1017.4
20260901075456 77 275 0.0 1.0 0.00 0.00 0.00 75 1017.4
20260901075357 77 327 0.0 0.0 0.00 0.00 0.00 75 1017.4
20260901075258 77 326 0.0 0.0 0.00 0.00 0.00 75 1017.3
20260901075056 77 327 0.0 0.0 0.00 0.00 0.00 75 1017.4
20260901074957 77 327 0.0 0.0 0.00 0.00 0.00 75 1017.4
20260901074857 77 303 0.0 0.0 0.00 0.00 0.00 75 1017.3
20260901074757 77 303 0.0 0.0 0.00 0.00 0.00 75 1017.3
20260901074658 77 303 0.0 0.0 0.00 0.00 0.00 75 1017.4
20260901074557 77 303 0.0 0.0 0.00 0.00 0.00 75 1017.4
20260901074457 77 303 0.0 1.0 0.00 0.00 0.00 74 1017.3
20260901074357 77 303 0.0 1.0 0.00 0.00 0.00 74 1017.4
20260901074257 77 303 0.0 1.0 0.00 0.00 0.00 74 1017.4
20260901074157 77 303 0.0 1.0 0.00 0.00 0.00 74 1017.3
20260901074057 77 303 0.0 1.0 0.00 0.00 0.00 74 1017.3
20260901073957 77 303 0.0 1.0 0.00 0.00 0.00 74 1017.2
20260901073757 78 303 0.0 1.0 0.00 0.00 0.00 74 1017.2
20260901073657 78 303 0.0 1.0 0.00 0.00 0.00 73 1017.3
20260901073558 78 303 0.0 1.0 0.00 0.00 0.00 73 1017.2
20260901073458 78 335 0.0 2.0 0.00 0.00 0.00 73 1017.2
20260901073157 78 335 0.0 3.0 0.00 0.00 0.00 73 1017.1
20260901073056 78 336 0.0 3.0 0.00 0.00 0.00 73 1017.1
20260901072957 78 336 0.0 3.0 0.00 0.00 0.00 73 1017.1
20260901072857 78 336 0.0 3.0 0.00 0.00 0.00 73 1017.1
20260901072758 78 336 0.0 3.0 0.00 0.00 0.00 73 1017.1
20260901072657 78 332 0.0 3.0 0.00 0.00 0.00 73 1017.1
20260901072557 78 273 0.0 3.0 0.00 0.00 0.00 73 1017.0
20260901072356 78 341 1.0 3.0 0.00 0.00 0.00 73 1017.0
20260901072258 78 306 0.0 3.0 0.00 0.00 0.00 73 1017.0
20260901071957 78 262 0.0 4.0 0.00 0.00 0.00 73 1017.0
20260901071859 78 259 0.0 4.0 0.00 0.00 0.00 73 1016.9
20260901071657 78 211 0.0 4.0 0.00 0.00 0.00 73 1017.0
20260901071557 78 222 1.0 4.0 0.00 0.00 0.00 73 1017.0
20260901071457 78 163 1.0 4.0 0.00 0.00 0.00 73 1017.0
20260901071357 78 172 0.0 4.0 0.00 0.00 0.00 73 1016.9
20260901071257 78 172 0.0 5.0 0.00 0.00 0.00 73 1016.9
20260901071157 78 169 0.0 5.0 0.00 0.00 0.00 73 1016.9
20260901071057 78 190 0.0 5.0 0.00 0.00 0.00 73 1016.9
20260901070857 78 245 0.0 5.0 0.00 0.00 0.00 73 1016.8
20260901070758 78 245 0.0 5.0 0.00 0.00 0.00 73 1016.9
20260901070357 78 11 1.0 3.0 0.00 0.00 0.00 73 1016.9
20260901070157 78 220 0.0 3.0 0.00 0.00 0.00 73 1017.0
20260901070059 78 115 0.0 3.0 0.00 0.00 0.00 73 1017.0
20260901065957 78 102 0.0 3.0 0.00 0.00 0.00 73 1016.9
20260901065758 78 170 2.0 3.0 0.00 0.00 0.00 73 1016.9
20260901065657 78 223 0.0 3.0 0.00 0.00 0.00 73 1016.9
20260901065557 78 198 3.0 4.0 0.00 0.00 0.00 73 1016.8
20260901065457 78 192 0.0 2.0 0.00 0.00 0.00 73 1016.9
20260901065356 78 190 0.0 5.0 0.00 0.00 0.00 73 1016.9
20260901065257 78 165 0.0 5.0 0.00 0.00 0.00 73 1016.9
20260901065158 78 267 0.0 5.0 0.00 0.00 0.00 73 1016.9
20260901065057 78 285 0.0 5.0 0.00 0.00 0.00 74 1016.9
20260901064958 78 249 0.0 5.0 0.00 0.00 0.00 74 1016.9
20260901064857 78 186 1.0 5.0 0.00 0.00 0.00 74 1016.8
20260901064756 78 170 1.0 5.0 0.00 0.00 0.00 74 1016.9
20260901064559 78 155 0.0 5.0 0.00 0.00 0.00 74 1016.9
20260901064358 78 180 0.0 5.0 0.00 0.00 0.00 75 1016.9
20260901064157 77 255 0.0 4.0 0.00 0.00 0.00 75 1016.9
20260901064057 77 175 0.0 4.0 0.00 0.00 0.00 75 1016.9
20260901063957 77 182 1.0 5.0 0.00 0.00 0.00 76 1017.0
20260901063857 77 205 0.0 3.0 0.00 0.00 0.00 76 1016.9
20260901063757 77 247 0.0 3.0 0.00 0.00 0.00 76 1017.0
20260901063658 77 196 2.0 3.0 0.00 0.00 0.00 76 1017.0
20260901063557 77 295 0.0 0.0 0.00 0.00 0.00 77 1017.1
20260901063456 77 302 0.0 0.0 0.00 0.00 0.00 77 1017.0
20260901063358 77 302 0.0 0.0 0.00 0.00 0.00 77 1017.0
20260901063257 77 300 0.0 0.0 0.00 0.00 0.00 77 1017.1
20260901063157 77 195 0.0 0.0 0.00 0.00 0.00 77 1017.1
20260901063059 77 259 0.0 1.0 0.00 0.00 0.00 77 1017.1
20260901062957 77 226 0.0 1.0 0.00 0.00 0.00 77 1017.0
20260901062857 77 226 0.0 1.0 0.00 0.00 0.00 77 1017.0
20260901062757 77 226 0.0 1.0 0.00 0.00 0.00 77 1017.1
20260901062700 77 226 0.0 1.0 0.00 0.00 0.00 77 1017.1
20260901062557 77 226 0.0 1.0 0.00 0.00 0.00 78 1017.1
20260901062457 77 171 0.0 1.0 0.00 0.00 0.00 78 1017.1
20260901062357 77 247 0.0 1.0 0.00 0.00 0.00 78 1017.0
20260901062257 77 225 0.0 1.0 0.00 0.00 0.00 78 1017.0
20260901062157 77 211 0.0 0.0 0.00 0.00 0.00 78 1017.0
20260901062056 77 223 0.0 0.0 0.00 0.00 0.00 78 1017.0
20260901061959 77 202 0.0 0.0 0.00 0.00 0.00 78 1017.0
20260901061856 76 225 0.0 0.0 0.00 0.00 0.00 78 1017.1
20260901061757 76 304 0.0 0.0 0.00 0.00 0.00 78 1017.0
20260901061557 76 218 0.0 0.0 0.00 0.00 0.00 79 1017.1
20260901061457 76 218 0.0 0.0 0.00 0.00 0.00 79 1017.1
20260901061258 76 227 0.0 0.0 0.00 0.00 0.00 79 1017.1
20260901061156 76 227 0.0 0.0 0.00 0.00 0.00 79 1017.1
20260901061057 76 235 0.0 0.0 0.00 0.00 0.00 79 1017.1
20260901060958 76 235 0.0 0.0 0.00 0.00 0.00 79 1017.1
20260901060857 76 235 0.0 0.0 0.00 0.00 0.00 79 1017.2
20260901060658 77 235 0.0 0.0 0.00 0.00 0.00 79 1017.3
20260901060557 77 235 0.0 0.0 0.00 0.00 0.00 79 1017.3
20260901060158 77 235 0.0 0.0 0.00 0.00 0.00 79 1017.4
20260901060058 77 235 0.0 0.0 0.00 0.00 0.00 79 1017.4
20260901055957 77 235 0.0 0.0 0.00 0.00 0.00 79 1017.5
20260901055856 77 235 0.0 0.0 0.00 0.00 0.00 79 1017.4
20260901055757 77 235 0.0 0.0 0.00 0.00 0.00 79 1017.5
20260901055658 77 235 0.0 0.0 0.00 0.00 0.00 78 1017.4
20260901055458 77 235 0.0 0.0 0.00 0.00 0.00 78 1017.4
20260901055358 77 235 0.0 0.0 0.00 0.00 0.00 78 1017.5
20260901055157 77 235 0.0 0.0 0.00 0.00 0.00 78 1017.5
20260901055057 77 235 0.0 0.0 0.00 0.00 0.00 78 1017.5
20260901054959 77 235 0.0 0.0 0.00 0.00 0.00 78 1017.5
20260901054857 77 235 0.0 0.0 0.00 0.00 0.00 78 1017.5
20260901054658 77 235 0.0 0.0 0.00 0.00 0.00 78 1017.6
20260901054557 77 235 0.0 0.0 0.00 0.00 0.00 78 1017.6
20260901054457 77 235 0.0 0.0 0.00 0.00 0.00 78 1017.6
20260901054258 77 235 0.0 0.0 0.00 0.00 0.00 79 1017.7
20260901054157 77 235 0.0 0.0 0.00 0.00 0.00 79 1017.7
20260901054057 77 235 0.0 0.0 0.00 0.00 0.00 79 1017.7
20260901053957 77 235 0.0 0.0 0.00 0.00 0.00 79 1017.7
20260901053757 77 235 0.0 0.0 0.00 0.00 0.00 79 1017.7
20260901053557 77 302 0.0 0.0 0.00 0.00 0.00 79 1017.6
20260901053457 77 262 0.0 0.0 0.00 0.00 0.00 79 1017.7
20260901053359 77 262 0.0 0.0 0.00 0.00 0.00 79 1017.7
20260901053258 77 272 0.0 0.0 0.00 0.00 0.00 79 1017.7
20260901053157 77 248 0.0 0.0 0.00 0.00 0.00 79 1017.6
20260901053058 77 248 0.0 0.0 0.00 0.00 0.00 79 1017.6
20260901052957 77 272 0.0 0.0 0.00 0.00 0.00 79 1017.7
20260901052859 77 247 0.0 0.0 0.00 0.00 0.00 79 1017.7
20260901052756 77 251 0.0 0.0 0.00 0.00 0.00 79 1017.8
20260901052656 77 251 0.0 0.0 0.00 0.00 0.00 80 1017.8
20260901052557 77 236 0.0 0.0 0.00 0.00 0.00 80 1017.8
20260901052357 77 232 0.0 0.0 0.00 0.00 0.00 80 1017.7
20260901052257 76 244 0.0 0.0 0.00 0.00 0.00 80 1017.8
20260901052157 77 244 0.0 0.0 0.00 0.00 0.00 80 1017.8
20260901052057 76 208 0.0 0.0 0.00 0.00 0.00 80 1017.8
20260901051956 76 208 0.0 0.0 0.00 0.00 0.00 80 1017.8
20260901051857 76 208 0.0 0.0 0.00 0.00 0.00 80 1017.8
20260901051758 76 233 0.0 0.0 0.00 0.00 0.00 80 1017.8
20260901051657 76 234 0.0 0.0 0.00 0.00 0.00 80 1017.8
20260901051557 76 234 0.0 0.0 0.00 0.00 0.00 80 1017.8
20260901051457 76 234 0.0 0.0 0.00 0.00 0.00 80 1017.9
20260901051359 76 234 0.0 0.0 0.00 0.00 0.00 80 1017.9
20260901051256 77 234 0.0 0.0 0.00 0.00 0.00 80 1017.9
20260901051156 77 234 0.0 0.0 0.00 0.00 0.00 80 1017.9
20260901051057 77 234 0.0 0.0 0.00 0.00 0.00 79 1017.9
20260901050957 77 234 0.0 0.0 0.00 0.00 0.00 80 1017.9
20260901050857 77 234 0.0 0.0 0.00 0.00 0.00 79 1018.0
20260901050758 77 234 0.0 0.0 0.00 0.00 0.00 79 1018.0
20260901050657 77 234 0.0 0.0 0.00 0.00 0.00 79 1017.9
20260901050557 77 234 0.0 0.0 0.00 0.00 0.00 79 1018.0
20260901050457 77 234 0.0 0.0 0.00 0.00 0.00 79 1017.9
20260901050257 77 234 0.0 0.0 0.00 0.00 0.00 79 1017.9
20260901050157 77 234 0.0 0.0 0.00 0.00 0.00 79 1018.0
20260901050059 77 234 0.0 0.0 0.00 0.00 0.00 79 1017.9
20260901045957 77 234 0.0 0.0 0.00 0.00 0.00 79 1017.9
20260901045858 77 234 0.0 0.0 0.00 0.00 0.00 79 1018.0
20260901045757 77 234 0.0 0.0 0.00 0.00 0.00 79 1018.0
20260901045558 77 234 0.0 0.0 0.00 0.00 0.00 79 1018.0
20260901045457 77 234 0.0 0.0 0.00 0.00 0.00 79 1018.0
20260901045359 77 234 0.0 0.0 0.00 0.00 0.00 79 1017.9
20260901045257 77 234 0.0 0.0 0.00 0.00 0.00 79 1018.0
20260901045156 77 234 0.0 0.0 0.00 0.00 0.00 79 1018.1
20260901045059 77 234 0.0 0.0 0.00 0.00 0.00 79 1018.1
20260901044958 77 234 0.0 0.0 0.00 0.00 0.00 79 1018.1
20260901044857 77 234 0.0 0.0 0.00 0.00 0.00 78 1018.1
20260901044756 77 234 0.0 0.0 0.00 0.00 0.00 78 1018.1
20260901044658 77 234 0.0 0.0 0.00 0.00 0.00 79 1018.1
20260901044557 77 234 0.0 0.0 0.00 0.00 0.00 78 1018.1
20260901044456 77 234 0.0 0.0 0.00 0.00 0.00 78 1018.1
20260901044357 77 234 0.0 0.0 0.00 0.00 0.00 78 1018.0
20260901044257 77 234 0.0 0.0 0.00 0.00 0.00 78 1018.1
20260901044158 77 234 0.0 0.0 0.00 0.00 0.00 78 1018.0
20260901044100 78 234 0.0 0.0 0.00 0.00 0.00 78 1018.1
20260901043957 78 234 0.0 0.0 0.00 0.00 0.00 78 1018.1
20260901043858 78 234 0.0 0.0 0.00 0.00 0.00 78 1018.1
20260901043758 78 234 0.0 0.0 0.00 0.00 0.00 78 1018.1
20260901043657 78 234 0.0 0.0 0.00 0.00 0.00 78 1018.0
20260901043556 78 234 0.0 0.0 0.00 0.00 0.00 78 1018.1
20260901043458 78 234 0.0 0.0 0.00 0.00 0.00 78 1018.1
20260901043158 78 234 0.0 0.0 0.00 0.00 0.00 78 1018.1
20260901043059 78 234 0.0 0.0 0.00 0.00 0.00 78 1018.1
20260901042959 78 234 0.0 0.0 0.00 0.00 0.00 78 1018.1
20260901042858 78 234 0.0 0.0 0.00 0.00 0.00 78 1018.1
20260901042758 78 234 0.0 0.0 0.00 0.00 0.00 77 1018.1
20260901042658 78 234 0.0 0.0 0.00 0.00 0.00 77 1018.1
20260901042558 78 234 0.0 0.0 0.00 0.00 0.00 77 1018.1
20260901042459 78 234 0.0 0.0 0.00 0.00 0.00 77 1018.2
20260901042357 78 234 0.0 0.0 0.00 0.00 0.00 77 1018.1
20260901042300 78 234 0.0 0.0 0.00 0.00 0.00 77 1018.1
20260901042158 78 234 0.0 0.0 0.00 0.00 0.00 77 1018.1
20260901042058 78 234 0.0 0.0 0.00 0.00 0.00 77 1018.0
20260901041958 78 234 0.0 0.0 0.00 0.00 0.00 77 1018.0
20260901041759 78 234 0.0 0.0 0.00 0.00 0.00 77 1018.1
20260901041657 78 234 0.0 0.0 0.00 0.00 0.00 77 1018.1
20260901041558 78 234 0.0 0.0 0.00 0.00 0.00 78 1018.0
20260901041458 78 234 0.0 0.0 0.00 0.00 0.00 78 1018.0
20260901041358 78 234 0.0 0.0 0.00 0.00 0.00 77 1018.1
20260901041200 78 234 0.0 0.0 0.00 0.00 0.00 77 1018.1
20260901041058 78 234 0.0 0.0 0.00 0.00 0.00 77 1018.1
20260901040957 78 233 0.0 0.0 0.00 0.00 0.00 77 1018.1
20260901040859 78 233 0.0 0.0 0.00 0.00 0.00 77 1018.1
20260901040758 78 233 0.0 0.0 0.00 0.00 0.00 78 1018.0
20260901040658 78 233 0.0 0.0 0.00 0.00 0.00 78 1018.0
20260901040559 78 233 0.0 0.0 0.00 0.00 0.00 78 1018.0
20260901040458 78 233 0.0 0.0 0.00 0.00 0.00 78 1018.0
20260901040359 78 233 0.0 0.0 0.00 0.00 0.00 78 1018.1
20260901040257 78 233 0.0 0.0 0.00 0.00 0.00 78 1018.0
20260901040158 78 233 0.0 0.0 0.00 0.00 0.00 78 1018.0
20260901040056 78 233 0.0 0.0 0.00 0.00 0.00 78 1018.1
20260901040006 78 233 0.0 0.0 0.00 0.00 0.00 78 1018.1
20260901035859 78 233 0.0 0.0 0.00 0.00 0.00 78 1018.2
20260901035759 78 233 0.0 0.0 0.00 0.00 0.00 78 1018.1
20260901035559 78 196 0.0 0.0 0.00 0.00 0.00 78 1018.2
20260901035458 78 196 0.0 0.0 0.00 0.00 0.00 78 1018.1
20260901035359 78 196 0.0 0.0 0.00 0.00 0.00 78 1018.1
20260901035259 78 196 0.0 0.0 0.00 0.00 0.00 78 1018.1
20260901035200 78 196 0.0 0.0 0.00 0.00 0.00 78 1018.1
20260901035058 78 196 0.0 0.0 0.00 0.00 0.00 78 1018.2
20260901034959 78 196 0.0 0.0 0.00 0.00 0.00 78 1018.1
20260901034859 78 196 0.0 0.0 0.00 0.00 0.00 78 1018.2
20260901034700 78 196 0.0 0.0 0.00 0.00 0.00 78 1018.2
20260901034559 78 196 0.0 0.0 0.00 0.00 0.00 78 1018.2
20260901034458 78 196 0.0 0.0 0.00 0.00 0.00 78 1018.1
20260901034258 78 196 0.0 0.0 0.00 0.00 0.00 78 1018.2
20260901034159 78 196 0.0 0.0 0.00 0.00 0.00 78 1018.2
20260901034100 78 196 0.0 0.0 0.00 0.00 0.00 79 1018.1
20260901033858 78 196 0.0 0.0 0.00 0.00 0.00 79 1018.1
20260901033759 78 196 0.0 0.0 0.00 0.00 0.00 79 1018.2
20260901033659 78 196 0.0 0.0 0.00 0.00 0.00 79 1018.2
20260901033600 78 196 0.0 0.0 0.00 0.00 0.00 79 1018.3
20260901033459 78 196 0.0 0.0 0.00 0.00 0.00 78 1018.3
20260901033401 78 196 0.0 0.0 0.00 0.00 0.00 78 1018.3
20260901033259 78 196 0.0 0.0 0.00 0.00 0.00 78 1018.3
20260901033158 78 196 0.0 0.0 0.00 0.00 0.00 78 1018.4
20260901033059 78 196 0.0 0.0 0.00 0.00 0.00 78 1018.3
20260901032859 78 196 0.0 0.0 0.00 0.00 0.00 79 1018.4
20260901032759 78 196 0.0 0.0 0.00 0.00 0.00 78 1018.4
20260901032700 78 196 0.0 0.0 0.00 0.00 0.00 78 1018.4
20260901032558 78 196 0.0 0.0 0.00 0.00 0.00 78 1018.4
20260901032459 78 196 0.0 0.0 0.00 0.00 0.00 78 1018.4
20260901032358 78 196 0.0 0.0 0.00 0.00 0.00 78 1018.4
20260901032258 78 196 0.0 0.0 0.00 0.00 0.00 78 1018.5
20260901032159 78 196 0.0 0.0 0.00 0.00 0.00 78 1018.4
20260901032101 78 196 0.0 0.0 0.00 0.00 0.00 78 1018.4
20260901031959 78 196 0.0 0.0 0.00 0.00 0.00 78 1018.5
20260901031858 78 196 0.0 0.0 0.00 0.00 0.00 78 1018.4
20260901031759 78 196 0.0 0.0 0.00 0.00 0.00 78 1018.4
20260901031659 78 196 0.0 0.0 0.00 0.00 0.00 78 1018.4
20260901031600 78 196 0.0 0.0 0.00 0.00 0.00 78 1018.4
20260901031458 78 196 0.0 0.0 0.00 0.00 0.00 78 1018.3
20260901031359 78 196 0.0 0.0 0.00 0.00 0.00 78 1018.4
20260901031159 78 196 0.0 0.0 0.00 0.00 0.00 78 1018.4
20260901031059 78 196 0.0 0.0 0.00 0.00 0.00 78 1018.4
20260901030959 78 196 0.0 0.0 0.00 0.00 0.00 78 1018.3
20260901030859 78 196 0.0 0.0 0.00 0.00 0.00 78 1018.4
20260901030800 78 196 0.0 0.0 0.00 0.00 0.00 78 1018.4
20260901030358 79 196 0.0 0.0 0.00 0.00 0.00 78 1018.3
20260901030259 79 196 0.0 0.0 0.00 0.00 0.00 78 1018.2
20260901030204 79 196 0.0 0.0 0.00 0.00 0.00 78 1018.2
20260901025901 79 196 0.0 0.0 0.00 0.00 0.00 78 1018.2
20260901025802 79 196 0.0 0.0 0.00 0.00 0.00 78 1018.2
20260901025702 79 196 0.0 0.0 0.00 0.00 0.00 78 1018.2
20260901025602 79 196 0.0 0.0 0.00 0.00 0.00 78 1018.2
20260901025502 79 196 0.0 0.0 0.00 0.00 0.00 78 1018.2
20260901025202 79 196 0.0 0.0 0.00 0.00 0.00 78 1018.2
20260901025004 79 196 0.0 0.0 0.00 0.00 0.00 78 1018.3
20260901024703 79 196 0.0 0.0 0.00 0.00 0.00 78 1018.4
20260901024604 79 196 0.0 0.0 0.00 0.00 0.00 78 1018.4
20260901024502 79 196 0.0 0.0 0.00 0.00 0.00 78 1018.4
20260901024402 79 196 0.0 0.0 0.00 0.00 0.00 78 1018.4
20260901024302 79 196 0.0 0.0 0.00 0.00 0.00 78 1018.5
20260901024202 79 196 0.0 0.0 0.00 0.00 0.00 78 1018.4
20260901024101 79 196 0.0 0.0 0.00 0.00 0.00 78 1018.4
20260901024002 79 196 0.0 0.0 0.00 0.00 0.00 78 1018.5
20260901023902 79 196 0.0 0.0 0.00 0.00 0.00 78 1018.4
20260901023802 79 196 0.0 0.0 0.00 0.00 0.00 78 1018.4
20260901023704 79 196 0.0 0.0 0.00 0.00 0.00 77 1018.4
20260901023602 79 196 0.0 0.0 0.00 0.00 0.00 78 1018.5
20260901023502 79 196 0.0 0.0 0.00 0.00 0.00 77 1018.5
20260901023401 79 196 0.0 0.0 0.00 0.00 0.00 78 1018.4
20260901023301 79 196 0.0 0.0 0.00 0.00 0.00 77 1018.4
20260901023202 79 196 0.0 0.0 0.00 0.00 0.00 78 1018.4
20260901023102 79 196 0.0 0.0 0.00 0.00 0.00 77 1018.5
20260901023002 79 196 0.0 0.0 0.00 0.00 0.00 78 1018.4
20260901022903 79 196 0.0 0.0 0.00 0.00 0.00 78 1018.4
20260901022802 79 196 0.0 0.0 0.00 0.00 0.00 78 1018.4
20260901022702 79 196 0.0 0.0 0.00 0.00 0.00 78 1018.4
20260901022601 80 196 0.0 0.0 0.00 0.00 0.00 78 1018.4
20260901022502 80 196 0.0 0.0 0.00 0.00 0.00 78 1018.4
20260901022402 80 196 0.0 0.0 0.00 0.00 0.00 77 1018.4
20260901022305 80 196 0.0 0.0 0.00 0.00 0.00 77 1018.5
20260901022202 80 196 0.0 0.0 0.00 0.00 0.00 77 1018.4
20260901022101 80 196 0.0 0.0 0.00 0.00 0.00 77 1018.4
20260901021903 80 196 0.0 0.0 0.00 0.00 0.00 77 1018.4
20260901021801 80 196 0.0 0.0 0.00 0.00 0.00 77 1018.4
20260901021701 80 196 0.0 0.0 0.00 0.00 0.00 77 1018.4
20260901021602 80 196 0.0 0.0 0.00 0.00 0.00 77 1018.3
20260901021503 80 196 0.0 0.0 0.00 0.00 0.00 77 1018.3
20260901021402 80 196 0.0 0.0 0.00 0.00 0.00 77 1018.3
20260901021305 80 196 0.0 0.0 0.00 0.00 0.00 77 1018.3
20260901021203 80 196 0.0 0.0 0.00 0.00 0.00 77 1018.2
20260901021102 80 196 0.0 0.0 0.00 0.00 0.00 77 1018.2
20260901021002 80 196 0.0 0.0 0.00 0.00 0.00 77 1018.2
20260901020802 80 196 0.0 0.0 0.00 0.00 0.00 76 1018.2
20260901020703 80 196 0.0 0.0 0.00 0.00 0.00 76 1018.2
20260901020603 80 196 0.0 0.0 0.00 0.00 0.00 76 1018.1
20260901020501 80 196 0.0 0.0 0.00 0.00 0.00 76 1018.1
20260901020403 80 196 0.0 0.0 0.00 0.00 0.00 77 1018.1
20260901020302 80 196 0.0 0.0 0.00 0.00 0.00 76 1018.2
20260901020203 80 196 0.0 0.0 0.00 0.00 0.00 76 1018.2
20260901020004 80 196 0.0 0.0 0.00 0.00 0.00 76 1018.2
20260901015902 80 196 0.0 0.0 0.00 0.00 0.00 76 1018.3
20260901015803 80 196 0.0 0.0 0.00 0.00 0.00 76 1018.3
20260901015702 80 196 0.0 0.0 0.00 0.00 0.00 76 1018.3
20260901015602 80 196 0.0 0.0 0.00 0.00 0.00 76 1018.2
20260901015502 80 196 0.0 0.0 0.00 0.00 0.00 76 1018.3
20260901015403 81 196 0.0 0.0 0.00 0.00 0.00 76 1018.2
20260901015305 81 196 0.0 0.0 0.00 0.00 0.00 75 1018.2
20260901015203 81 196 0.0 0.0 0.00 0.00 0.00 75 1018.2
20260901015101 81 196 0.0 0.0 0.00 0.00 0.00 75 1018.2
20260901014903 81 196 0.0 0.0 0.00 0.00 0.00 75 1018.2
20260901014802 81 196 0.0 0.0 0.00 0.00 0.00 75 1018.2
20260901014702 81 196 0.0 0.0 0.00 0.00 0.00 75 1018.2
20260901014602 81 196 0.0 0.0 0.00 0.00 0.00 75 1018.1
20260901014504 81 196 0.0 0.0 0.00 0.00 0.00 75 1018.2
20260901014403 81 196 0.0 0.0 0.00 0.00 0.00 75 1018.2
20260901014302 81 196 0.0 0.0 0.00 0.00 0.00 75 1018.2
20260901014202 81 196 0.0 0.0 0.00 0.00 0.00 75 1018.2
20260901014102 81 196 0.0 0.0 0.00 0.00 0.00 75 1018.1
20260901014002 81 196 0.0 0.0 0.00 0.00 0.00 74 1018.2
20260901013901 81 196 0.0 0.0 0.00 0.00 0.00 74 1018.1
20260901013802 81 196 0.0 0.0 0.00 0.00 0.00 74 1018.2
20260901013703 81 196 0.0 0.0 0.00 0.00 0.00 74 1018.2
20260901013502 81 196 0.0 0.0 0.00 0.00 0.00 74 1018.1
20260901013402 81 196 0.0 0.0 0.00 0.00 0.00 74 1018.1
20260901013302 81 196 0.0 0.0 0.00 0.00 0.00 74 1018.1
20260901013201 81 196 0.0 0.0 0.00 0.00 0.00 74 1018.1
20260901013104 81 196 0.0 0.0 0.00 0.00 0.00 74 1018.1
20260901012902 82 196 0.0 0.0 0.00 0.00 0.00 74 1018.1
20260901012803 82 196 0.0 0.0 0.00 0.00 0.00 74 1018.0
20260901012702 82 196 0.0 0.0 0.00 0.00 0.00 74 1018.0
20260901012604 82 196 0.0 0.0 0.00 0.00 0.00 73 1018.0
20260901012306 82 196 0.0 0.0 0.00 0.00 0.00 73 1018.0
20260901012102 82 196 0.0 0.0 0.00 0.00 0.00 72 1018.1
20260901012002 82 196 0.0 0.0 0.00 0.00 0.00 72 1018.0
20260901011901 82 196 0.0 0.0 0.00 0.00 0.00 71 1018.1
20260901011804 82 196 0.0 0.0 0.00 0.00 0.00 72 1018.0
20260901011702 82 196 0.0 0.0 0.00 0.00 0.00 72 1018.0
20260901011603 82 196 0.0 0.0 0.00 0.00 0.00 71 1018.0
20260901011501 82 196 0.0 0.0 0.00 0.00 0.00 71 1018.0
20260901011404 83 196 0.0 0.0 0.00 0.00 0.00 71 1017.9
20260901011301 83 196 0.0 0.0 0.00 0.00 0.00 71 1017.9
20260901011202 83 196 0.0 0.0 0.00 0.00 0.00 71 1017.9
20260901011102 83 196 0.0 0.0 0.00 0.00 0.00 71 1018.0
20260901011002 83 196 0.0 0.0 0.00 0.00 0.00 71 1017.9
20260901010903 83 196 0.0 0.0 0.00 0.00 0.00 70 1017.9
20260901010703 83 196 0.0 0.0 0.00 0.00 0.00 70 1017.8
20260901010502 83 196 0.0 0.0 0.00 0.00 0.00 70 1017.8
20260901010402 83 196 0.0 0.0 0.00 0.00 0.00 70 1017.8
20260901010303 83 196 0.0 0.0 0.00 0.00 0.00 70 1017.8
20260901010202 83 196 0.0 0.0 0.00 0.00 0.00 70 1017.7
20260901010103 83 196 0.0 0.0 0.00 0.00 0.00 70 1017.7
20260901010003 83 196 0.0 0.0 0.00 0.00 0.00 70 1017.7
20260901005902 83 196 0.0 0.0 0.00 0.00 0.00 70 1017.7
20260901005703 84 196 0.0 0.0 0.00 0.00 0.00 69 1017.7
20260901005602 84 196 0.0 0.0 0.00 0.00 0.00 69 1017.7
20260901005503 84 196 0.0 0.0 0.00 0.00 0.00 69 1017.7
20260901005306 84 196 0.0 0.0 0.00 0.00 0.00 69 1017.7
20260901005202 84 196 0.0 0.0 0.00 0.00 0.00 69 1017.6
20260901005104 84 221 0.0 0.0 0.00 0.00 0.00 69 1017.6
20260901005001 84 196 0.0 0.0 0.00 0.00 0.00 69 1017.5
20260901004702 84 194 0.0 0.0 0.00 0.00 0.00 69 1017.5
20260901004601 84 194 0.0 0.0 0.00 0.00 0.00 69 1017.5
20260901004505 84 194 0.0 0.0 0.00 0.00 0.00 68 1017.4
20260901004402 84 204 0.0 0.0 0.00 0.00 0.00 68 1017.4
20260901004302 84 204 0.0 0.0 0.00 0.00 0.00 68 1017.4
20260901004203 84 204 0.0 0.0 0.00 0.00 0.00 68 1017.4
20260901004101 84 204 0.0 0.0 0.00 0.00 0.00 68 1017.4
20260901003902 84 174 0.0 0.0 0.00 0.00 0.00 68 1017.4
20260901003802 84 174 0.0 0.0 0.00 0.00 0.00 68 1017.4
20260901003702 84 322 0.0 0.0 0.00 0.00 0.00 68 1017.4
20260901003503 85 250 0.0 0.0 0.00 0.00 0.00 68 1017.4
20260901003402 85 257 0.0 0.0 0.00 0.00 0.00 68 1017.4
20260901003302 85 257 0.0 0.0 0.00 0.00 0.00 68 1017.4
20260901003103 85 203 0.0 1.0 0.00 0.00 0.00 68 1017.4
20260901002902 85 201 0.0 1.0 0.00 0.00 0.00 67 1017.4
20260901002801 85 273 0.0 1.0 0.00 0.00 0.00 68 1017.4
20260901002702 85 194 0.0 2.0 0.00 0.00 0.00 67 1017.3
20260901002603 85 194 0.0 2.0 0.00 0.00 0.00 67 1017.2
20260901002502 85 209 0.0 2.0 0.00 0.00 0.00 67 1017.3
20260901002401 85 209 0.0 2.0 0.00 0.00 0.00 67 1017.3
20260901002305 85 209 1.0 2.0 0.00 0.00 0.00 67 1017.3
20260901002202 85 193 0.0 2.0 0.00 0.00 0.00 67 1017.3
20260901002102 85 211 0.0 3.0 0.00 0.00 0.00 67 1017.2
20260901002002 85 211 0.0 3.0 0.00 0.00 0.00 67 1017.2
20260901001904 85 204 0.0 3.0 0.00 0.00 0.00 67 1017.2
20260901001801 85 219 0.0 3.0 0.00 0.00 0.00 66 1017.2
20260901001703 85 220 0.0 3.0 0.00 0.00 0.00 66 1017.2
20260901001603 85 189 0.0 3.0 0.00 0.00 0.00 66 1017.1
20260901001501 85 189 0.0 3.0 0.00 0.00 0.00 66 1017.2
20260901001401 85 202 2.0 3.0 0.00 0.00 0.00 66 1017.1
20260901001303 86 297 0.0 3.0 0.00 0.00 0.00 66 1017.1
20260901001202 86 225 0.0 3.0 0.00 0.00 0.00 66 1017.2